Observation data for New Home on 11/15/2019      Previous  Date       Current Mesonet Observations  Soil Data  Daily Summary Page  Observations in Plain Language
KNH1 150600Z 24002KT 01/M01 A3044 RMK A01 T00131014  RH  082%=      5-min Rain = 0
KNH1 150601Z 24003KT 01/M01 A3044 RMK A01 T00121014  RH  083%=      5-min Rain = 0
KNH1 150602Z 24003KT 01/M02 A3044 RMK A01 T00111015  RH  083%=      5-min Rain = 0
KNH1 150603Z 25004KT 01/M02 A3044 RMK A01 T00101015  RH  084%=      5-min Rain = 0
KNH1 150604Z 25003KT 01/M02 A3044 RMK A01 T00091015  RH  084%=      5-min Rain = 0
KNH1 150605Z 25003KT 01/M02 A3044 RMK A01 T00081015  RH  084%=      5-min Rain = 0
KNH1 150606Z 24003KT 01/M02 A3044 RMK A01 T00071016  RH  085%=      5-min Rain = 0
KNH1 150607Z 24003KT 01/M02 A3044 RMK A01 T00061016  RH  085%=      5-min Rain = 0
KNH1 150608Z 25003KT 01/M02 A3044 RMK A01 T00061017  RH  085%=      5-min Rain = 0
KNH1 150609Z 25003KT 01/M02 A3044 RMK A01 T00051017  RH  085%=      5-min Rain = 0
KNH1 150610Z 25003KT 01/M02 A3044 RMK A01 T00051016  RH  086%=      5-min Rain = 0
KNH1 150611Z 25004KT 01/M02 A3044 RMK A01 T00051016  RH  086%=      5-min Rain = 0
KNH1 150612Z 25004KT 01/M02 A3044 RMK A01 T00051016  RH  086%=      5-min Rain = 0
KNH1 150613Z 25004KT 01/M02 A3044 RMK A01 T00051016  RH  086%=      5-min Rain = 0
KNH1 150614Z 25004KT 01/M02 A3044 RMK A01 T00051016  RH  086%=      5-min Rain = 0
KNH1 150615Z 25003KT 00/M02 A3044 RMK A01 T00041016  RH  086%=      5-min Rain = 0
KNH1 150616Z 25003KT 00/M02 A3044 RMK A01 T00041017  RH  086%=      5-min Rain = 0
KNH1 150617Z 24003KT 00/M02 A3044 RMK A01 T00041016  RH  086%=      5-min Rain = 0
KNH1 150618Z 24003KT 00/M02 A3044 RMK A01 T00031016  RH  087%=      5-min Rain = 0
KNH1 150619Z 23004KT 00/M02 A3044 RMK A01 T00031016  RH  087%=      5-min Rain = 0
KNH1 150620Z 23004KT 00/M02 A3044 RMK A01 T00041015  RH  087%=      5-min Rain = 0
KNH1 150621Z 22004KT 00/M02 A3044 RMK A01 T00041015  RH  087%=      5-min Rain = 0
KNH1 150622Z 22004KT 00/M02 A3044 RMK A01 T00041015  RH  087%=      5-min Rain = 0
KNH1 150623Z 23004KT 01/M01 A3044 RMK A01 T00051014  RH  087%=      5-min Rain = 0
KNH1 150624Z 23004KT 01/M02 A3044 RMK A01 T00051015  RH  087%=      5-min Rain = 0
KNH1 150625Z 23004KT 01/M02 A3044 RMK A01 T00061015  RH  086%=      5-min Rain = 0
KNH1 150626Z 23004KT 01/M02 A3044 RMK A01 T00061015  RH  086%=      5-min Rain = 0
KNH1 150627Z 22004KT 01/M02 A3044 RMK A01 T00061015  RH  086%=      5-min Rain = 0
KNH1 150628Z 22004KT 01/M02 A3044 RMK A01 T00051015  RH  086%=      5-min Rain = 0
KNH1 150629Z 22004KT 01/M02 A3044 RMK A01 T00061015  RH  086%=      5-min Rain = 0
KNH1 150630Z 22004KT 01/M02 A3044 RMK A01 T00061015  RH  086%=      5-min Rain = 0
KNH1 150631Z 23004KT 01/M02 A3044 RMK A01 T00051015  RH  086%=      5-min Rain = 0
KNH1 150632Z 23004KT 01/M02 A3044 RMK A01 T00051016  RH  086%=      5-min Rain = 0
KNH1 150633Z 23004KT 01/M02 A3044 RMK A01 T00051016  RH  086%=      5-min Rain = 0
KNH1 150634Z 23004KT 00/M02 A3044 RMK A01 T00041016  RH  086%=      5-min Rain = 0
KNH1 150635Z 23004KT 00/M02 A3044 RMK A01 T00041016  RH  086%=      5-min Rain = 0
KNH1 150636Z 23004KT 00/M02 A3044 RMK A01 T00041016  RH  087%=      5-min Rain = 0
KNH1 150637Z 23004KT 00/M02 A3044 RMK A01 T00031016  RH  087%=      5-min Rain = 0
KNH1 150638Z 23004KT 00/M02 A3044 RMK A01 T00031017  RH  087%=      5-min Rain = 0
KNH1 150639Z 23004KT 00/M02 A3044 RMK A01 T00031016  RH  087%=      5-min Rain = 0
KNH1 150640Z 23004KT 00/M02 A3044 RMK A01 T00021016  RH  087%=      5-min Rain = 0
KNH1 150641Z 23004KT 00/M02 A3044 RMK A01 T00031015  RH  087%=      5-min Rain = 0
KNH1 150642Z 24004KT 00/M02 A3044 RMK A01 T00031015  RH  087%=      5-min Rain = 0
KNH1 150643Z 24004KT 00/M02 A3044 RMK A01 T00031015  RH  087%=      5-min Rain = 0
KNH1 150644Z 24003KT 00/M02 A3044 RMK A01 T00031016  RH  087%=      5-min Rain = 0
KNH1 150645Z 24003KT 00/M02 A3044 RMK A01 T00031015  RH  087%=      5-min Rain = 0
KNH1 150646Z 24003KT 00/M02 A3044 RMK A01 T00031016  RH  087%=      5-min Rain = 0
KNH1 150647Z 24003KT 00/M02 A3044 RMK A01 T00031016  RH  087%=      5-min Rain = 0
KNH1 150648Z 23003KT 00/M02 A3044 RMK A01 T00021017  RH  087%=      5-min Rain = 0
KNH1 150649Z 24003KT 00/M02 A3044 RMK A01 T00021017  RH  087%=      5-min Rain = 0
KNH1 150650Z 24003KT 00/M02 A3044 RMK A01 T00021017  RH  087%=      5-min Rain = 0
KNH1 150651Z 24003KT 00/M02 A3044 RMK A01 T00011017  RH  088%=      5-min Rain = 0
KNH1 150652Z 24003KT 00/M02 A3044 RMK A01 T00021016  RH  088%=      5-min Rain = 0
KNH1 150653Z 24004KT 00/M02 A3044 RMK A01 T00021016  RH  088%=      5-min Rain = 0
KNH1 150654Z 24004KT 00/M02 A3044 RMK A01 T00021016  RH  088%=      5-min Rain = 0
KNH1 150655Z 24004KT 00/M02 A3044 RMK A01 T00021015  RH  088%=      5-min Rain = 0
KNH1 150656Z 24004KT 00/M02 A3044 RMK A01 T00021016  RH  088%=      5-min Rain = 0
KNH1 150657Z 24004KT 00/M02 A3044 RMK A01 T00021016  RH  088%=      5-min Rain = 0
KNH1 150658Z 24004KT 00/M02 A3044 RMK A01 T00021016  RH  088%=      5-min Rain = 0
KNH1 150659Z 24004KT 00/M02 A3044 RMK A01 T00021016  RH  088%=      5-min Rain = 0
KNH1 150700Z 24004KT 00/M02 A3044 RMK A01 T00011017  RH  088%=      5-min Rain = 0
KNH1 150701Z 25004KT 00/M02 A3044 RMK A01 T00011017  RH  088%=      5-min Rain = 0
KNH1 150702Z 25004KT 00/M02 A3044 RMK A01 T00011017  RH  088%=      5-min Rain = 0
KNH1 150703Z 25004KT 00/M02 A3044 RMK A01 T00011017  RH  088%=      5-min Rain = 0
KNH1 150704Z 25004KT 00/M02 A3044 RMK A01 T00011017  RH  088%=      5-min Rain = 0
KNH1 150705Z 26004KT 00/M02 A3044 RMK A01 T00011017  RH  088%=      5-min Rain = 0
KNH1 150706Z 26004KT 00/M02 A3044 RMK A01 T00011017  RH  088%=      5-min Rain = 0
KNH1 150707Z 26004KT 00/M02 A3044 RMK A01 T00011017  RH  088%=      5-min Rain = 0
KNH1 150708Z 27003KT 00/M02 A3044 RMK A01 T00011018  RH  087%=      5-min Rain = 0
KNH1 150709Z 27003KT 00/M02 A3044 RMK A01 T00011019  RH  087%=      5-min Rain = 0
KNH1 150710Z 27003KT 00/M02 A3044 RMK A01 T00011019  RH  087%=      5-min Rain = 0
KNH1 150711Z 27003KT 00/M02 A3044 RMK A01 T00011018  RH  087%=      5-min Rain = 0
KNH1 150712Z 27003KT 00/M02 A3044 RMK A01 T00021018  RH  087%=      5-min Rain = 0
KNH1 150713Z 27003KT 00/M02 A3044 RMK A01 T00021018  RH  087%=      5-min Rain = 0
KNH1 150714Z 27003KT 00/M02 A3044 RMK A01 T00021018  RH  086%=      5-min Rain = 0
KNH1 150715Z 26003KT 00/M02 A3044 RMK A01 T00021018  RH  086%=      5-min Rain = 0
KNH1 150716Z 26003KT 00/M02 A3044 RMK A01 T00021018  RH  087%=      5-min Rain = 0
KNH1 150717Z 26003KT 00/M02 A3044 RMK A01 T00021017  RH  087%=      5-min Rain = 0
KNH1 150718Z 26003KT 00/M02 A3044 RMK A01 T00021017  RH  087%=      5-min Rain = 0
KNH1 150719Z 26003KT 00/M02 A3044 RMK A01 T00021017  RH  087%=      5-min Rain = 0
KNH1 150720Z 26003KT 00/M02 A3044 RMK A01 T00031017  RH  087%=      5-min Rain = 0
KNH1 150721Z 26003KT 00/M02 A3044 RMK A01 T00021018  RH  087%=      5-min Rain = 0
KNH1 150722Z 26003KT 00/M02 A3044 RMK A01 T00021018  RH  086%=      5-min Rain = 0
KNH1 150723Z 26003KT 00/M02 A3044 RMK A01 T00021017  RH  087%=      5-min Rain = 0
KNH1 150724Z 27003KT 00/M02 A3044 RMK A01 T00021017  RH  087%=      5-min Rain = 0
KNH1 150725Z 27003KT 00/M02 A3044 RMK A01 T00021018  RH  087%=      5-min Rain = 0
KNH1 150726Z 26003KT 00/M02 A3044 RMK A01 T00021018  RH  087%=      5-min Rain = 0
KNH1 150727Z 26003KT 00/M02 A3044 RMK A01 T00021017  RH  087%=      5-min Rain = 0
KNH1 150728Z 26004KT 00/M02 A3044 RMK A01 T00021017  RH  087%=      5-min Rain = 0
KNH1 150729Z 26004KT 00/M02 A3044 RMK A01 T00021017  RH  087%=      5-min Rain = 0
KNH1 150730Z 26004KT 00/M02 A3044 RMK A01 T00021018  RH  087%=      5-min Rain = 0
KNH1 150731Z 26004KT 00/M02 A3044 RMK A01 T00021017  RH  087%=      5-min Rain = 0
KNH1 150732Z 26004KT 00/M02 A3044 RMK A01 T00021017  RH  087%=      5-min Rain = 0
KNH1 150733Z 26004KT 00/M02 A3044 RMK A01 T00021017  RH  087%=      5-min Rain = 0
KNH1 150734Z 26004KT 00/M02 A3044 RMK A01 T00021018  RH  087%=      5-min Rain = 0
KNH1 150735Z 27004KT 00/M02 A3044 RMK A01 T00021018  RH  087%=      5-min Rain = 0
KNH1 150736Z 27004KT 00/M02 A3044 RMK A01 T00011018  RH  087%=      5-min Rain = 0
KNH1 150737Z 27004KT 00/M02 A3044 RMK A01 T00021018  RH  087%=      5-min Rain = 0
KNH1 150738Z 27005KT 00/M02 A3044 RMK A01 T00011019  RH  087%=      5-min Rain = 0
KNH1 150739Z 27005KT 00/02 A3044 RMK A01 T00000-19  RH  087%=      5-min Rain = 0
KNH1 150740Z 27004KT 00/02 A3044 RMK A01 T00000-18  RH  087%=      5-min Rain = 0
KNH1 150741Z 27004KT 00/02 A3044 RMK A01 T00000-18  RH  087%=      5-min Rain = 0
KNH1 150742Z 27004KT 00/02 A3044 RMK A01 T00-00-19  RH  087%=      5-min Rain = 0
KNH1 150743Z 27004KT 00/02 A3044 RMK A01 T00-00-19  RH  087%=      5-min Rain = 0
KNH1 150744Z 27003KT M00/M02 A3044 RMK A01 T10011019  RH  087%=      5-min Rain = 0
KNH1 150745Z 27003KT M00/M02 A3044 RMK A01 T10011019  RH  088%=      5-min Rain = 0
KNH1 150746Z 27003KT M00/M02 A3044 RMK A01 T10021019  RH  088%=      5-min Rain = 0
KNH1 150747Z 27003KT M00/M02 A3044 RMK A01 T10021019  RH  088%=      5-min Rain = 0
KNH1 150748Z 27004KT M00/M02 A3044 RMK A01 T10021018  RH  088%=      5-min Rain = 0
KNH1 150749Z 27004KT M00/M02 A3044 RMK A01 T10011018  RH  089%=      5-min Rain = 0
KNH1 150750Z 27004KT M00/M02 A3044 RMK A01 T10011018  RH  089%=      5-min Rain = 0
KNH1 150751Z 27004KT M00/M02 A3044 RMK A01 T10011017  RH  089%=      5-min Rain = 0
KNH1 150752Z 27004KT M00/M02 A3044 RMK A01 T10011018  RH  088%=      5-min Rain = 0
KNH1 150753Z 27004KT M00/M02 A3044 RMK A01 T10011018  RH  088%=      5-min Rain = 0
KNH1 150754Z 27003KT M00/M02 A3044 RMK A01 T10011018  RH  088%=      5-min Rain = 0
KNH1 150755Z 27003KT M00/M02 A3044 RMK A01 T10011018  RH  088%=      5-min Rain = 0
KNH1 150756Z 27003KT M00/M02 A3044 RMK A01 T10021019  RH  088%=      5-min Rain = 0
KNH1 150757Z 27003KT M00/M02 A3044 RMK A01 T10021019  RH  088%=      5-min Rain = 0
KNH1 150758Z 27003KT M00/M02 A3044 RMK A01 T10021018  RH  089%=      5-min Rain = 0
KNH1 150759Z 27003KT M00/M02 A3044 RMK A01 T10021018  RH  089%=      5-min Rain = 0
KNH1 150800Z 26003KT M00/M02 A3044 RMK A01 T10011018  RH  089%=      5-min Rain = 0
KNH1 150801Z 26003KT M00/M02 A3044 RMK A01 T10011017  RH  089%=      5-min Rain = 0
KNH1 150802Z 26003KT M00/M02 A3043 RMK A01 T10011017  RH  089%=      5-min Rain = 0
KNH1 150803Z 26003KT M00/M02 A3043 RMK A01 T10011017  RH  089%=      5-min Rain = 0
KNH1 150804Z 26003KT 00/02 A3043 RMK A01 T00-00-16  RH  089%=      5-min Rain = 0
KNH1 150805Z 26003KT 00/02 A3043 RMK A01 T00-00-16  RH  089%=      5-min Rain = 0
KNH1 150806Z 26003KT 00/02 A3043 RMK A01 T00000-16  RH  089%=      5-min Rain = 0
KNH1 150807Z 26003KT 00/02 A3043 RMK A01 T00000-16  RH  089%=      5-min Rain = 0
KNH1 150808Z 26003KT 00/M02 A3043 RMK A01 T00011016  RH  089%=      5-min Rain = 0
KNH1 150809Z 25003KT 00/M02 A3043 RMK A01 T00011015  RH  089%=      5-min Rain = 0
KNH1 150810Z 26003KT 00/M02 A3043 RMK A01 T00021015  RH  089%=      5-min Rain = 0
KNH1 150811Z 26003KT 00/M02 A3043 RMK A01 T00031015  RH  088%=      5-min Rain = 0
KNH1 150812Z 26003KT 00/M02 A3043 RMK A01 T00031015  RH  088%=      5-min Rain = 0
KNH1 150813Z 26003KT 00/M01 A3043 RMK A01 T00031014  RH  088%=      5-min Rain = 0
KNH1 150814Z 26003KT 00/M02 A3043 RMK A01 T00031015  RH  088%=      5-min Rain = 0
KNH1 150815Z 26003KT 00/M02 A3043 RMK A01 T00031015  RH  088%=      5-min Rain = 0
KNH1 150816Z 25003KT 00/M02 A3043 RMK A01 T00031015  RH  088%=      5-min Rain = 0
KNH1 150817Z 25003KT 00/M01 A3043 RMK A01 T00041014  RH  087%=      5-min Rain = 0
KNH1 150818Z 25003KT 00/M02 A3043 RMK A01 T00041015  RH  087%=      5-min Rain = 0
KNH1 150819Z 26003KT 00/M02 A3043 RMK A01 T00041015  RH  087%=      5-min Rain = 0
KNH1 150820Z 26004KT 00/M02 A3043 RMK A01 T00031016  RH  087%=      5-min Rain = 0
KNH1 150821Z 26004KT 00/M02 A3043 RMK A01 T00021017  RH  087%=      5-min Rain = 0
KNH1 150822Z 26004KT 00/M02 A3043 RMK A01 T00011018  RH  087%=      5-min Rain = 0
KNH1 150823Z 26003KT 00/02 A3043 RMK A01 T00000-18  RH  087%=      5-min Rain = 0
KNH1 150824Z 26003KT M00/M02 A3043 RMK A01 T10011019  RH  088%=      5-min Rain = 0
KNH1 150825Z 26004KT M00/M02 A3043 RMK A01 T10011018  RH  088%=      5-min Rain = 0
KNH1 150826Z 26004KT M00/M02 A3043 RMK A01 T10011018  RH  088%=      5-min Rain = 0
KNH1 150827Z 26004KT M00/M02 A3043 RMK A01 T10021019  RH  088%=      5-min Rain = 0
KNH1 150828Z 26004KT M00/M02 A3043 RMK A01 T10021019  RH  088%=      5-min Rain = 0
KNH1 150829Z 26004KT M00/M02 A3043 RMK A01 T10031020  RH  089%=      5-min Rain = 0
KNH1 150830Z 26004KT M00/M02 A3043 RMK A01 T10031019  RH  089%=      5-min Rain = 0
KNH1 150831Z 26004KT M00/M02 A3043 RMK A01 T10031019  RH  089%=      5-min Rain = 0
KNH1 150832Z 26004KT M00/M02 A3043 RMK A01 T10041019  RH  089%=      5-min Rain = 0
KNH1 150833Z 26004KT M00/M02 A3043 RMK A01 T10041020  RH  089%=      5-min Rain = 0
KNH1 150834Z 26003KT M00/M02 A3043 RMK A01 T10041020  RH  089%=      5-min Rain = 0
KNH1 150835Z 26004KT M01/M02 A3043 RMK A01 T10051020  RH  089%=      5-min Rain = 0
KNH1 150836Z 26004KT M01/M02 A3043 RMK A01 T10051020  RH  089%=      5-min Rain = 0
KNH1 150837Z 26004KT M01/M02 A3043 RMK A01 T10051020  RH  090%=      5-min Rain = 0
KNH1 150838Z 26004KT M01/M02 A3043 RMK A01 T10061021  RH  090%=      5-min Rain = 0
KNH1 150839Z 26004KT M01/M02 A3042 RMK A01 T10061020  RH  090%=      5-min Rain = 0
KNH1 150840Z 26004KT M01/M02 A3042 RMK A01 T10061020  RH  090%=      5-min Rain = 0
KNH1 150841Z 26004KT M01/M02 A3042 RMK A01 T10061020  RH  090%=      5-min Rain = 0
KNH1 150842Z 25004KT M01/M02 A3042 RMK A01 T10061020  RH  090%=      5-min Rain = 0
KNH1 150843Z 25004KT M01/M02 A3042 RMK A01 T10061020  RH  090%=      5-min Rain = 0
KNH1 150844Z 25004KT M01/M02 A3042 RMK A01 T10071020  RH  090%=      5-min Rain = 0
KNH1 150845Z 25004KT M01/M02 A3042 RMK A01 T10071021  RH  090%=      5-min Rain = 0
KNH1 150846Z 25004KT M01/M02 A3042 RMK A01 T10071021  RH  091%=      5-min Rain = 0
KNH1 150847Z 25004KT M01/M02 A3042 RMK A01 T10081021  RH  091%=      5-min Rain = 0
KNH1 150848Z 25004KT M01/M02 A3042 RMK A01 T10071020  RH  091%=      5-min Rain = 0
KNH1 150849Z 24004KT M01/M02 A3042 RMK A01 T10071020  RH  091%=      5-min Rain = 0
KNH1 150850Z 24005KT M01/M02 A3042 RMK A01 T10071020  RH  091%=      5-min Rain = 0
KNH1 150851Z 25005KT M01/M02 A3042 RMK A01 T10071020  RH  091%=      5-min Rain = 0
KNH1 150852Z 25004KT M01/M02 A3042 RMK A01 T10071020  RH  091%=      5-min Rain = 0
KNH1 150853Z 25004KT M01/M02 A3042 RMK A01 T10061019  RH  091%=      5-min Rain = 0
KNH1 150854Z 25004KT M01/M02 A3041 RMK A01 T10071020  RH  091%=      5-min Rain = 0
KNH1 150855Z 25004KT M01/M02 A3041 RMK A01 T10071020  RH  091%=      5-min Rain = 0
KNH1 150856Z 25004KT M01/M02 A3041 RMK A01 T10071020  RH  091%=      5-min Rain = 0
KNH1 150857Z 25004KT M01/M02 A3041 RMK A01 T10071020  RH  091%=      5-min Rain = 0
KNH1 150858Z 25004KT M01/M02 A3041 RMK A01 T10071020  RH  091%=      5-min Rain = 0
KNH1 150859Z 25004KT M01/M02 A3041 RMK A01 T10071020  RH  091%=      5-min Rain = 0
KNH1 150900Z 25004KT M01/M02 A3041 RMK A01 T10061020  RH  091%=      5-min Rain = 0
KNH1 150901Z 25004KT M01/M02 A3041 RMK A01 T10071020  RH  091%=      5-min Rain = 0
KNH1 150902Z 25004KT M01/M02 A3041 RMK A01 T10061019  RH  091%=      5-min Rain = 0
KNH1 150903Z 25005KT M01/M02 A3041 RMK A01 T10071020  RH  091%=      5-min Rain = 0
KNH1 150904Z 25005KT M01/M02 A3041 RMK A01 T10071020  RH  091%=      5-min Rain = 0
KNH1 150905Z 25005KT M01/M02 A3041 RMK A01 T10071020  RH  091%=      5-min Rain = 0
KNH1 150906Z 25005KT M01/M02 A3041 RMK A01 T10071020  RH  090%=      5-min Rain = 0
KNH1 150907Z 25005KT M01/M02 A3041 RMK A01 T10071021  RH  090%=      5-min Rain = 0
KNH1 150908Z 25005KT M01/M02 A3041 RMK A01 T10071021  RH  090%=      5-min Rain = 0
KNH1 150909Z 25005KT M01/M02 A3041 RMK A01 T10071022  RH  090%=      5-min Rain = 0
KNH1 150910Z 25005KT M01/M02 A3041 RMK A01 T10081022  RH  090%=      5-min Rain = 0
KNH1 150911Z 25004KT M01/M02 A3041 RMK A01 T10081022  RH  090%=      5-min Rain = 0
KNH1 150912Z 25004KT M01/M02 A3041 RMK A01 T10081021  RH  090%=      5-min Rain = 0
KNH1 150913Z 25004KT M01/M02 A3041 RMK A01 T10081021  RH  091%=      5-min Rain = 0
KNH1 150914Z 25004KT M01/M02 A3041 RMK A01 T10071021  RH  091%=      5-min Rain = 0
KNH1 150915Z 25004KT M01/M02 A3041 RMK A01 T10071021  RH  091%=      5-min Rain = 0
KNH1 150916Z 25004KT M01/M02 A3041 RMK A01 T10081021  RH  091%=      5-min Rain = 0
KNH1 150917Z 26004KT M01/M02 A3041 RMK A01 T10081021  RH  091%=      5-min Rain = 0
KNH1 150918Z 26004KT M01/M02 A3041 RMK A01 T10081021  RH  091%=      5-min Rain = 0
KNH1 150919Z 26004KT M01/M02 A3041 RMK A01 T10081022  RH  091%=      5-min Rain = 0
KNH1 150920Z 26004KT M01/M02 A3041 RMK A01 T10081021  RH  091%=      5-min Rain = 0
KNH1 150921Z 26004KT M01/M02 A3041 RMK A01 T10081021  RH  091%=      5-min Rain = 0
KNH1 150922Z 26003KT M01/M02 A3041 RMK A01 T10081021  RH  091%=      5-min Rain = 0
KNH1 150923Z 27003KT M01/M02 A3041 RMK A01 T10071021  RH  090%=      5-min Rain = 0
KNH1 150924Z 27004KT M01/M02 A3041 RMK A01 T10081021  RH  090%=      5-min Rain = 0
KNH1 150925Z 27004KT M01/M02 A3041 RMK A01 T10081022  RH  090%=      5-min Rain = 0
KNH1 150926Z 27004KT M01/M02 A3041 RMK A01 T10081022  RH  090%=      5-min Rain = 0
KNH1 150927Z 27003KT M01/M02 A3041 RMK A01 T10081022  RH  090%=      5-min Rain = 0
KNH1 150928Z 27003KT M01/M02 A3041 RMK A01 T10081021  RH  091%=      5-min Rain = 0
KNH1 150929Z 27003KT M01/M02 A3041 RMK A01 T10071021  RH  091%=      5-min Rain = 0
KNH1 150930Z 27004KT M01/M02 A3041 RMK A01 T10081021  RH  091%=      5-min Rain = 0
KNH1 150931Z 27004KT M01/M02 A3041 RMK A01 T10081021  RH  091%=      5-min Rain = 0
KNH1 150932Z 27004KT M01/M02 A304 RMK A01 T10071021  RH  091%=      5-min Rain = 0
KNH1 150933Z 27004KT M01/M02 A304 RMK A01 T10081021  RH  091%=      5-min Rain = 0
KNH1 150934Z 26004KT M01/M02 A304 RMK A01 T10071021  RH  091%=      5-min Rain = 0
KNH1 150935Z 26004KT M01/M02 A304 RMK A01 T10071020  RH  091%=      5-min Rain = 0
KNH1 150936Z 26004KT M01/M02 A304 RMK A01 T10071021  RH  091%=      5-min Rain = 0
KNH1 150937Z 27004KT M01/M02 A304 RMK A01 T10071021  RH  091%=      5-min Rain = 0
KNH1 150938Z 27004KT M01/M02 A304 RMK A01 T10071021  RH  090%=      5-min Rain = 0
KNH1 150939Z 27004KT M01/M02 A304 RMK A01 T10071021  RH  090%=      5-min Rain = 0
KNH1 150940Z 27003KT M01/M02 A304 RMK A01 T10071021  RH  090%=      5-min Rain = 0
KNH1 150941Z 26004KT M01/M02 A304 RMK A01 T10071021  RH  090%=      5-min Rain = 0
KNH1 150942Z 26004KT M01/M02 A304 RMK A01 T10071021  RH  090%=      5-min Rain = 0
KNH1 150943Z 26004KT M01/M02 A304 RMK A01 T10071021  RH  090%=      5-min Rain = 0
KNH1 150944Z 26004KT M01/M02 A304 RMK A01 T10081022  RH  090%=      5-min Rain = 0
KNH1 150945Z 26004KT M01/M02 A304 RMK A01 T10081022  RH  090%=      5-min Rain = 0
KNH1 150946Z 26004KT M01/M02 A304 RMK A01 T10081022  RH  090%=      5-min Rain = 0
KNH1 150947Z 26004KT M01/M02 A304 RMK A01 T10091023  RH  090%=      5-min Rain = 0
KNH1 150948Z 26004KT M01/M02 A304 RMK A01 T10091023  RH  091%=      5-min Rain = 0
KNH1 150949Z 26004KT M01/M02 A304 RMK A01 T10091023  RH  091%=      5-min Rain = 0
KNH1 150950Z 26004KT M01/M02 A304 RMK A01 T10091023  RH  091%=      5-min Rain = 0
KNH1 150951Z 26004KT M01/M02 A304 RMK A01 T10091023  RH  091%=      5-min Rain = 0
KNH1 150952Z 26004KT M01/M02 A304 RMK A01 T10091022  RH  091%=      5-min Rain = 0
KNH1 150953Z 27004KT M01/M02 A304 RMK A01 T10101023  RH  091%=      5-min Rain = 0
KNH1 150954Z 27004KT M01/M02 A304 RMK A01 T10091022  RH  091%=      5-min Rain = 0
KNH1 150955Z 27004KT M01/M02 A304 RMK A01 T10091022  RH  091%=      5-min Rain = 0
KNH1 150956Z 27004KT M01/M02 A304 RMK A01 T10091023  RH  091%=      5-min Rain = 0
KNH1 150957Z 27004KT M01/M02 A304 RMK A01 T10101023  RH  091%=      5-min Rain = 0
KNH1 150958Z 27004KT M01/M02 A304 RMK A01 T10101023  RH  091%=      5-min Rain = 0
KNH1 150959Z 27004KT M01/M02 A304 RMK A01 T10101023  RH  091%=      5-min Rain = 0
KNH1 151000Z 27004KT M01/M02 A304 RMK A01 T10101023  RH  091%=      5-min Rain = 0
KNH1 151001Z 27004KT M01/M02 A304 RMK A01 T10101023  RH  091%=      5-min Rain = 0
KNH1 151002Z 27003KT M01/M02 A304 RMK A01 T10101023  RH  091%=      5-min Rain = 0
KNH1 151003Z 27003KT M01/M02 A304 RMK A01 T10101024  RH  091%=      5-min Rain = 0
KNH1 151004Z 27003KT M01/M02 A304 RMK A01 T10111024  RH  091%=      5-min Rain = 0
KNH1 151005Z 27003KT M01/M02 A304 RMK A01 T10111024  RH  091%=      5-min Rain = 0
KNH1 151006Z 27003KT M01/M02 A304 RMK A01 T10111023  RH  091%=      5-min Rain = 0
KNH1 151007Z 27004KT M01/M02 A304 RMK A01 T10111023  RH  091%=      5-min Rain = 0
KNH1 151008Z 27004KT M01/M02 A304 RMK A01 T10111023  RH  091%=      5-min Rain = 0
KNH1 151009Z 27004KT M01/M02 A304 RMK A01 T10101022  RH  092%=      5-min Rain = 0
KNH1 151010Z 28004KT M01/M02 A304 RMK A01 T10101022  RH  092%=      5-min Rain = 0
KNH1 151011Z 28004KT M01/M02 A304 RMK A01 T10101022  RH  092%=      5-min Rain = 0
KNH1 151012Z 28004KT M01/M02 A304 RMK A01 T10101022  RH  091%=      5-min Rain = 0
KNH1 151013Z 28004KT M01/M02 A304 RMK A01 T10091022  RH  091%=      5-min Rain = 0
KNH1 151014Z 27004KT M01/M02 A304 RMK A01 T10091022  RH  091%=      5-min Rain = 0
KNH1 151015Z 27004KT M01/M02 A304 RMK A01 T10091022  RH  091%=      5-min Rain = 0
KNH1 151016Z 27004KT M01/M02 A304 RMK A01 T10091023  RH  091%=      5-min Rain = 0
KNH1 151017Z 27004KT M01/M02 A304 RMK A01 T10091022  RH  091%=      5-min Rain = 0
KNH1 151018Z 27004KT M01/M02 A304 RMK A01 T10081022  RH  091%=      5-min Rain = 0
KNH1 151019Z 27004KT M01/M02 A304 RMK A01 T10091022  RH  091%=      5-min Rain = 0
KNH1 151020Z 27004KT M01/M02 A304 RMK A01 T10081022  RH  091%=      5-min Rain = 0
KNH1 151021Z 26004KT M01/M02 A304 RMK A01 T10081022  RH  091%=      5-min Rain = 0
KNH1 151022Z 26004KT M01/M02 A304 RMK A01 T10081022  RH  091%=      5-min Rain = 0
KNH1 151023Z 26004KT M01/M02 A304 RMK A01 T10081022  RH  090%=      5-min Rain = 0
KNH1 151024Z 26004KT M01/M02 A304 RMK A01 T10081022  RH  090%=      5-min Rain = 0
KNH1 151025Z 26004KT M01/M02 A304 RMK A01 T10071022  RH  090%=      5-min Rain = 0
KNH1 151026Z 27003KT M01/M02 A304 RMK A01 T10081022  RH  090%=      5-min Rain = 0
KNH1 151027Z 27003KT M01/M02 A3039 RMK A01 T10081022  RH  090%=      5-min Rain = 0
KNH1 151028Z 27003KT M01/M02 A3039 RMK A01 T10081023  RH  090%=      5-min Rain = 0
KNH1 151029Z 27003KT M01/M02 A3039 RMK A01 T10091023  RH  090%=      5-min Rain = 0
KNH1 151030Z 27003KT M01/M02 A3039 RMK A01 T10091023  RH  090%=      5-min Rain = 0
KNH1 151031Z 27003KT M01/M02 A3039 RMK A01 T10101024  RH  090%=      5-min Rain = 0
KNH1 151032Z 27002KT M01/M02 A3039 RMK A01 T10101024  RH  090%=      5-min Rain = 0
KNH1 151033Z 27003KT M01/M02 A3039 RMK A01 T10101023  RH  091%=      5-min Rain = 0
KNH1 151034Z 27003KT M01/M02 A3039 RMK A01 T10101023  RH  091%=      5-min Rain = 0
KNH1 151035Z 27003KT M01/M02 A3039 RMK A01 T10091022  RH  091%=      5-min Rain = 0
KNH1 151036Z 27003KT M01/M02 A3039 RMK A01 T10081021  RH  091%=      5-min Rain = 0
KNH1 151037Z 27003KT M01/M02 A3039 RMK A01 T10081021  RH  091%=      5-min Rain = 0
KNH1 151038Z 27003KT M01/M02 A3039 RMK A01 T10081021  RH  091%=      5-min Rain = 0
KNH1 151039Z 27003KT M01/M02 A3039 RMK A01 T10081021  RH  091%=      5-min Rain = 0
KNH1 151040Z 27003KT M01/M02 A3039 RMK A01 T10081021  RH  091%=      5-min Rain = 0
KNH1 151041Z 27003KT M01/M02 A3039 RMK A01 T10081022  RH  090%=      5-min Rain = 0
KNH1 151042Z 27003KT M01/M02 A3039 RMK A01 T10081022  RH  090%=      5-min Rain = 0
KNH1 151043Z 27003KT M01/M02 A3039 RMK A01 T10081022  RH  090%=      5-min Rain = 0
KNH1 151044Z 28003KT M01/M02 A3039 RMK A01 T10081022  RH  090%=      5-min Rain = 0
KNH1 151045Z 28004KT M01/M02 A3039 RMK A01 T10081022  RH  090%=      5-min Rain = 0
KNH1 151046Z 28004KT M01/M02 A3039 RMK A01 T10081023  RH  090%=      5-min Rain = 0
KNH1 151047Z 28004KT M01/M02 A3039 RMK A01 T10091023  RH  090%=      5-min Rain = 0
KNH1 151048Z 28004KT M01/M02 A3039 RMK A01 T10091023  RH  090%=      5-min Rain = 0
KNH1 151049Z 27004KT M01/M02 A3039 RMK A01 T10091023  RH  090%=      5-min Rain = 0
KNH1 151050Z 27004KT M01/M02 A3039 RMK A01 T10081022  RH  090%=      5-min Rain = 0
KNH1 151051Z 27004KT M01/M02 A3039 RMK A01 T10081022  RH  090%=      5-min Rain = 0
KNH1 151052Z 27004KT M01/M02 A3039 RMK A01 T10091023  RH  090%=      5-min Rain = 0
KNH1 151053Z 27004KT M01/M02 A3039 RMK A01 T10091024  RH  090%=      5-min Rain = 0
KNH1 151054Z 27004KT M01/M02 A3039 RMK A01 T10091023  RH  090%=      5-min Rain = 0
KNH1 151055Z 28004KT M01/M02 A3039 RMK A01 T10091023  RH  090%=      5-min Rain = 0
KNH1 151056Z 28004KT M01/M02 A3039 RMK A01 T10091023  RH  090%=      5-min Rain = 0
KNH1 151057Z 28004KT M01/M02 A3039 RMK A01 T10091023  RH  090%=      5-min Rain = 0
KNH1 151058Z 28004KT M01/M02 A3039 RMK A01 T10101023  RH  090%=      5-min Rain = 0
KNH1 151059Z 28004KT M01/M02 A3039 RMK A01 T10091023  RH  090%=      5-min Rain = 0
KNH1 151100Z 27004KT M01/M02 A3039 RMK A01 T10091023  RH  091%=      5-min Rain = 0
KNH1 151101Z 27003KT M01/M02 A3039 RMK A01 T10091023  RH  091%=      5-min Rain = 0
KNH1 151102Z 27004KT M01/M02 A3039 RMK A01 T10101023  RH  091%=      5-min Rain = 0
KNH1 151103Z 27004KT M01/M02 A3039 RMK A01 T10101023  RH  091%=      5-min Rain = 0
KNH1 151104Z 27004KT M01/M02 A3039 RMK A01 T10101023  RH  091%=      5-min Rain = 0
KNH1 151105Z 27003KT M01/M02 A3039 RMK A01 T10101023  RH  091%=      5-min Rain = 0
KNH1 151106Z 27003KT M01/M02 A3039 RMK A01 T10101024  RH  091%=      5-min Rain = 0
KNH1 151107Z 27003KT M01/M02 A3039 RMK A01 T10101024  RH  091%=      5-min Rain = 0
KNH1 151108Z 27003KT M01/M02 A3039 RMK A01 T10101024  RH  091%=      5-min Rain = 0
KNH1 151109Z 27003KT M01/M02 A3039 RMK A01 T10101024  RH  091%=      5-min Rain = 0
KNH1 151110Z 27003KT M01/M02 A3039 RMK A01 T10111024  RH  091%=      5-min Rain = 0
KNH1 151111Z 27003KT M01/M02 A3039 RMK A01 T10111024  RH  091%=      5-min Rain = 0
KNH1 151112Z 27003KT M01/M02 A3039 RMK A01 T10111024  RH  091%=      5-min Rain = 0
KNH1 151113Z 26003KT M01/M02 A3039 RMK A01 T10111024  RH  091%=      5-min Rain = 0
KNH1 151114Z 26003KT M01/M02 A3039 RMK A01 T10111024  RH  091%=      5-min Rain = 0
KNH1 151115Z 26003KT M01/M02 A3039 RMK A01 T10111024  RH  091%=      5-min Rain = 0
KNH1 151116Z 26003KT M01/M02 A3039 RMK A01 T10101023  RH  091%=      5-min Rain = 0
KNH1 151117Z 26003KT M01/M02 A3039 RMK A01 T10101023  RH  091%=      5-min Rain = 0
KNH1 151118Z 26003KT M01/M02 A3039 RMK A01 T10101022  RH  091%=      5-min Rain = 0
KNH1 151119Z 26003KT M01/M02 A3039 RMK A01 T10091022  RH  091%=      5-min Rain = 0
KNH1 151120Z 26003KT M01/M02 A3039 RMK A01 T10091022  RH  091%=      5-min Rain = 0
KNH1 151121Z 26003KT M01/M02 A3038 RMK A01 T10091022  RH  091%=      5-min Rain = 0
KNH1 151122Z 26003KT M01/M02 A3038 RMK A01 T10081022  RH  091%=      5-min Rain = 0
KNH1 151123Z 26003KT M01/M02 A3039 RMK A01 T10081022  RH  091%=      5-min Rain = 0
KNH1 151124Z 26003KT M01/M02 A3039 RMK A01 T10081022  RH  090%=      5-min Rain = 0
KNH1 151125Z 26003KT M01/M02 A3039 RMK A01 T10081022  RH  090%=      5-min Rain = 0
KNH1 151126Z 25003KT M01/M02 A3039 RMK A01 T10091023  RH  090%=      5-min Rain = 0
KNH1 151127Z 25003KT M01/M02 A3039 RMK A01 T10091023  RH  090%=      5-min Rain = 0
KNH1 151128Z 25003KT M01/M02 A3038 RMK A01 T10091023  RH  090%=      5-min Rain = 0
KNH1 151129Z 25003KT M01/M02 A3038 RMK A01 T10091023  RH  090%=      5-min Rain = 0
KNH1 151130Z 26003KT M01/M02 A3038 RMK A01 T10091023  RH  090%=      5-min Rain = 0
KNH1 151131Z 26004KT M01/M02 A3038 RMK A01 T10091023  RH  090%=      5-min Rain = 0
KNH1 151132Z 26004KT M01/M02 A3038 RMK A01 T10091023  RH  090%=      5-min Rain = 0
KNH1 151133Z 26004KT M01/M02 A3038 RMK A01 T10091023  RH  090%=      5-min Rain = 0
KNH1 151134Z 26004KT M01/M02 A3038 RMK A01 T10091023  RH  090%=      5-min Rain = 0
KNH1 151135Z 26004KT M01/M02 A3039 RMK A01 T10091023  RH  090%=      5-min Rain = 0
KNH1 151136Z 26004KT M01/M02 A3039 RMK A01 T10091023  RH  090%=      5-min Rain = 0
KNH1 151137Z 26004KT M01/M02 A3039 RMK A01 T10091023  RH  090%=      5-min Rain = 0
KNH1 151138Z 26004KT M01/M02 A3039 RMK A01 T10091023  RH  090%=      5-min Rain = 0
KNH1 151139Z 26005KT M01/M02 A3039 RMK A01 T10101024  RH  090%=      5-min Rain = 0
KNH1 151140Z 26005KT M01/M02 A3039 RMK A01 T10101024  RH  090%=      5-min Rain = 0
KNH1 151141Z 26005KT M01/M02 A3039 RMK A01 T10111024  RH  090%=      5-min Rain = 0
KNH1 151142Z 26005KT M01/M02 A3039 RMK A01 T10111024  RH  091%=      5-min Rain = 0
KNH1 151143Z 27005KT M01/M02 A3039 RMK A01 T10111024  RH  091%=      5-min Rain = 0
KNH1 151144Z 27005KT M01/M02 A3039 RMK A01 T10111024  RH  091%=      5-min Rain = 0
KNH1 151145Z 27004KT M01/M03 A3039 RMK A01 T10121025  RH  091%=      5-min Rain = 0
KNH1 151146Z 27004KT M01/M03 A3039 RMK A01 T10121026  RH  091%=      5-min Rain = 0
KNH1 151147Z 27004KT M01/M03 A3039 RMK A01 T10131026  RH  091%=      5-min Rain = 0
KNH1 151148Z 27004KT M01/M03 A3039 RMK A01 T10141026  RH  091%=      5-min Rain = 0
KNH1 151149Z 27004KT M01/M03 A3039 RMK A01 T10141026  RH  091%=      5-min Rain = 0
KNH1 151150Z 27004KT M01/M03 A3039 RMK A01 T10141026  RH  092%=      5-min Rain = 0
KNH1 151151Z 27005KT M02/M03 A3039 RMK A01 T10151026  RH  092%=      5-min Rain = 0
KNH1 151152Z 27004KT M02/M03 A3039 RMK A01 T10151026  RH  092%=      5-min Rain = 0
KNH1 151153Z 27004KT M02/M03 A3039 RMK A01 T10151026  RH  092%=      5-min Rain = 0
KNH1 151154Z 27004KT M02/M03 A3039 RMK A01 T10151026  RH  092%=      5-min Rain = 0
KNH1 151155Z 27004KT M02/M03 A3039 RMK A01 T10151026  RH  092%=      5-min Rain = 0
KNH1 151156Z 27004KT M02/M03 A3039 RMK A01 T10151026  RH  092%=      5-min Rain = 0
KNH1 151157Z 27004KT M02/M03 A3039 RMK A01 T10151026  RH  092%=      5-min Rain = 0
KNH1 151158Z 27004KT M02/M03 A3039 RMK A01 T10151026  RH  092%=      5-min Rain = 0
KNH1 151159Z 26004KT M02/M03 A3039 RMK A01 T10151026  RH  092%=      5-min Rain = 0
KNH1 151200Z 26004KT M02/M03 A3039 RMK A01 T10151026  RH  092%=      5-min Rain = 0
KNH1 151201Z 26004KT M02/M03 A3039 RMK A01 T10161027  RH  092%=      5-min Rain = 0
KNH1 151202Z 26004KT M02/M03 A3039 RMK A01 T10161027  RH  092%=      5-min Rain = 0
KNH1 151203Z 26004KT M02/M03 A3039 RMK A01 T10161026  RH  093%=      5-min Rain = 0
KNH1 151204Z 26004KT M02/M03 A3039 RMK A01 T10161026  RH  093%=      5-min Rain = 0
KNH1 151205Z 26004KT M02/M03 A3039 RMK A01 T10161026  RH  093%=      5-min Rain = 0
KNH1 151206Z 26004KT M02/M03 A3039 RMK A01 T10161027  RH  093%=      5-min Rain = 0
KNH1 151207Z 27004KT M02/M03 A3039 RMK A01 T10161027  RH  093%=      5-min Rain = 0
KNH1 151208Z 27004KT M02/M03 A3039 RMK A01 T10161026  RH  093%=      5-min Rain = 0
KNH1 151209Z 27005KT M02/M03 A3039 RMK A01 T10161026  RH  093%=      5-min Rain = 0
KNH1 151210Z 27005KT M02/M03 A3039 RMK A01 T10161027  RH  093%=      5-min Rain = 0
KNH1 151211Z 28004KT M02/M03 A3039 RMK A01 T10171028  RH  092%=      5-min Rain = 0
KNH1 151212Z 28005KT M02/M03 A3039 RMK A01 T10181029  RH  092%=      5-min Rain = 0
KNH1 151213Z 28004KT M02/M03 A3039 RMK A01 T10181029  RH  092%=      5-min Rain = 0
KNH1 151214Z 28005KT M02/M03 A3039 RMK A01 T10181029  RH  092%=      5-min Rain = 0
KNH1 151215Z 28004KT M02/M03 A3039 RMK A01 T10171028  RH  092%=      5-min Rain = 0
KNH1 151216Z 28004KT M02/M03 A3039 RMK A01 T10171028  RH  092%=      5-min Rain = 0
KNH1 151217Z 28004KT M02/M03 A3039 RMK A01 T10161027  RH  092%=      5-min Rain = 0
KNH1 151218Z 27005KT M02/M03 A3039 RMK A01 T10161027  RH  092%=      5-min Rain = 0
KNH1 151219Z 27005KT M02/M03 A3039 RMK A01 T10161027  RH  092%=      5-min Rain = 0
KNH1 151220Z 27005KT M02/M03 A3039 RMK A01 T10161027  RH  092%=      5-min Rain = 0
KNH1 151221Z 27005KT M02/M03 A3039 RMK A01 T10161027  RH  092%=      5-min Rain = 0
KNH1 151222Z 28005KT M02/M03 A3039 RMK A01 T10161028  RH  092%=      5-min Rain = 0
KNH1 151223Z 28005KT M02/M03 A3039 RMK A01 T10171028  RH  092%=      5-min Rain = 0
KNH1 151224Z 28005KT M02/M03 A3039 RMK A01 T10161027  RH  092%=      5-min Rain = 0
KNH1 151225Z 28004KT M02/M03 A3039 RMK A01 T10171028  RH  092%=      5-min Rain = 0
KNH1 151226Z 28004KT M02/M03 A3039 RMK A01 T10171028  RH  092%=      5-min Rain = 0
KNH1 151227Z 27004KT M02/M03 A3039 RMK A01 T10171029  RH  092%=      5-min Rain = 0
KNH1 151228Z 27004KT M02/M03 A3039 RMK A01 T10171028  RH  092%=      5-min Rain = 0
KNH1 151229Z 27004KT M02/M03 A3039 RMK A01 T10161027  RH  092%=      5-min Rain = 0
KNH1 151230Z 27004KT M02/M03 A3039 RMK A01 T10151026  RH  092%=      5-min Rain = 0
KNH1 151231Z 27004KT M02/M03 A3039 RMK A01 T10151026  RH  092%=      5-min Rain = 0
KNH1 151232Z 27004KT M02/M03 A3039 RMK A01 T10151026  RH  092%=      5-min Rain = 0
KNH1 151233Z 27005KT M01/M03 A3039 RMK A01 T10141026  RH  092%=      5-min Rain = 0
KNH1 151234Z 27005KT M01/M03 A3039 RMK A01 T10141026  RH  091%=      5-min Rain = 0
KNH1 151235Z 27005KT M02/M03 A3039 RMK A01 T10151027  RH  091%=      5-min Rain = 0
KNH1 151236Z 27005KT M02/M03 A3039 RMK A01 T10151028  RH  091%=      5-min Rain = 0
KNH1 151237Z 27005KT M02/M03 A3039 RMK A01 T10151028  RH  091%=      5-min Rain = 0
KNH1 151238Z 28005KT M02/M03 A3039 RMK A01 T10151028  RH  091%=      5-min Rain = 0
KNH1 151239Z 28004KT M02/M03 A3039 RMK A01 T10151028  RH  091%=      5-min Rain = 0
KNH1 151240Z 27004KT M02/M03 A3039 RMK A01 T10151028  RH  091%=      5-min Rain = 0
KNH1 151241Z 27004KT M02/M03 A3039 RMK A01 T10151028  RH  091%=      5-min Rain = 0
KNH1 151242Z 27004KT M02/M03 A3039 RMK A01 T10161028  RH  091%=      5-min Rain = 0
KNH1 151243Z 27004KT M02/M03 A3039 RMK A01 T10151028  RH  091%=      5-min Rain = 0
KNH1 151244Z 27004KT M02/M03 A3039 RMK A01 T10151027  RH  091%=      5-min Rain = 0
KNH1 151245Z 27004KT M01/M03 A3039 RMK A01 T10141027  RH  091%=      5-min Rain = 0
KNH1 151246Z 27004KT M01/M03 A3039 RMK A01 T10141027  RH  091%=      5-min Rain = 0
KNH1 151247Z 27004KT M01/M03 A3039 RMK A01 T10141027  RH  091%=      5-min Rain = 0
KNH1 151248Z 27004KT M01/M03 A3039 RMK A01 T10141027  RH  091%=      5-min Rain = 0
KNH1 151249Z 27004KT M02/M03 A3039 RMK A01 T10151028  RH  091%=      5-min Rain = 0
KNH1 151250Z 27004KT M01/M03 A3039 RMK A01 T10141028  RH  091%=      5-min Rain = 0
KNH1 151251Z 27004KT M02/M03 A3039 RMK A01 T10151028  RH  091%=      5-min Rain = 0
KNH1 151252Z 27004KT M02/M03 A3039 RMK A01 T10151028  RH  091%=      5-min Rain = 0
KNH1 151253Z 27004KT M02/M03 A3039 RMK A01 T10151028  RH  091%=      5-min Rain = 0
KNH1 151254Z 27004KT M01/M03 A3039 RMK A01 T10141027  RH  091%=      5-min Rain = 0
KNH1 151255Z 27005KT M02/M03 A3039 RMK A01 T10151028  RH  091%=      5-min Rain = 0
KNH1 151256Z 27005KT M02/M03 A3039 RMK A01 T10151028  RH  091%=      5-min Rain = 0
KNH1 151257Z 27005KT M02/M03 A3039 RMK A01 T10161029  RH  091%=      5-min Rain = 0
KNH1 151258Z 27004KT M02/M03 A3039 RMK A01 T10161030  RH  091%=      5-min Rain = 0
KNH1 151259Z 27004KT M02/M03 A3039 RMK A01 T10171031  RH  091%=      5-min Rain = 0
KNH1 151300Z 27004KT M02/M03 A3039 RMK A01 T10171030  RH  091%=      5-min Rain = 0
KNH1 151301Z 27004KT M02/M03 A3039 RMK A01 T10171030  RH  091%=      5-min Rain = 0
KNH1 151302Z 27004KT M02/M03 A3039 RMK A01 T10171029  RH  091%=      5-min Rain = 0
KNH1 151303Z 27004KT M02/M03 A3039 RMK A01 T10171029  RH  091%=      5-min Rain = 0
KNH1 151304Z 27004KT M02/M03 A3039 RMK A01 T10171030  RH  091%=      5-min Rain = 0
KNH1 151305Z 27004KT M02/M03 A3039 RMK A01 T10171030  RH  091%=      5-min Rain = 0
KNH1 151306Z 27004KT M02/M03 A3039 RMK A01 T10171029  RH  091%=      5-min Rain = 0
KNH1 151307Z 27004KT M02/M03 A3039 RMK A01 T10171029  RH  091%=      5-min Rain = 0
KNH1 151308Z 27004KT M02/M03 A3039 RMK A01 T10161028  RH  091%=      5-min Rain = 0
KNH1 151309Z 27004KT M02/M03 A3039 RMK A01 T10161028  RH  091%=      5-min Rain = 0
KNH1 151310Z 27004KT M02/M03 A3039 RMK A01 T10161029  RH  091%=      5-min Rain = 0
KNH1 151311Z 27004KT M02/M03 A3039 RMK A01 T10161029  RH  091%=      5-min Rain = 0
KNH1 151312Z 27004KT M02/M03 A3039 RMK A01 T10161029  RH  091%=      5-min Rain = 0
KNH1 151313Z 27004KT M02/M03 A3039 RMK A01 T10171031  RH  091%=      5-min Rain = 0
KNH1 151314Z 27004KT M02/M03 A3039 RMK A01 T10171031  RH  091%=      5-min Rain = 0
KNH1 151315Z 27004KT M02/M03 A3039 RMK A01 T10181032  RH  091%=      5-min Rain = 0
KNH1 151316Z 27004KT M02/M03 A3039 RMK A01 T10191032  RH  091%=      5-min Rain = 0
KNH1 151317Z 26005KT M02/M03 A304 RMK A01 T10191033  RH  091%=      5-min Rain = 0
KNH1 151318Z 26005KT M02/M03 A304 RMK A01 T10191032  RH  091%=      5-min Rain = 0
KNH1 151319Z 26005KT M02/M03 A304 RMK A01 T10191031  RH  092%=      5-min Rain = 0
KNH1 151320Z 26005KT M02/M03 A304 RMK A01 T10191030  RH  092%=      5-min Rain = 0
KNH1 151321Z 26005KT M02/M03 A304 RMK A01 T10191030  RH  092%=      5-min Rain = 0
KNH1 151322Z 26005KT M02/M03 A304 RMK A01 T10191030  RH  092%=      5-min Rain = 0
KNH1 151323Z 26005KT M02/M03 A304 RMK A01 T10181028  RH  092%=      5-min Rain = 0
KNH1 151324Z 26005KT M02/M03 A304 RMK A01 T10181028  RH  093%=      5-min Rain = 0
KNH1 151325Z 26005KT M02/M03 A304 RMK A01 T10171028  RH  092%=      5-min Rain = 0
KNH1 151326Z 26005KT M02/M03 A304 RMK A01 T10171028  RH  092%=      5-min Rain = 0
KNH1 151327Z 26005KT M02/M03 A304 RMK A01 T10171028  RH  092%=      5-min Rain = 0
KNH1 151328Z 25004KT M02/M03 A304 RMK A01 T10171028  RH  092%=      5-min Rain = 0
KNH1 151329Z 25004KT M02/M03 A304 RMK A01 T10171028  RH  092%=      5-min Rain = 0
KNH1 151330Z 25004KT M02/M03 A304 RMK A01 T10161027  RH  092%=      5-min Rain = 0
KNH1 151331Z 25004KT M02/M03 A304 RMK A01 T10161027  RH  092%=      5-min Rain = 0
KNH1 151332Z 25004KT M02/M03 A304 RMK A01 T10161027  RH  092%=      5-min Rain = 0
KNH1 151333Z 25004KT M02/M03 A304 RMK A01 T10161027  RH  092%=      5-min Rain = 0
KNH1 151334Z 25004KT M02/M03 A304 RMK A01 T10161028  RH  092%=      5-min Rain = 0
KNH1 151335Z 25004KT M02/M03 A304 RMK A01 T10161028  RH  092%=      5-min Rain = 0
KNH1 151336Z 25004KT M02/M03 A304 RMK A01 T10161028  RH  092%=      5-min Rain = 0
KNH1 151337Z 25004KT M02/M03 A304 RMK A01 T10161028  RH  092%=      5-min Rain = 0
KNH1 151338Z 25004KT M02/M03 A304 RMK A01 T10161027  RH  092%=      5-min Rain = 0
KNH1 151339Z 25004KT M02/M03 A304 RMK A01 T10161027  RH  092%=      5-min Rain = 0
KNH1 151340Z 25004KT M02/M03 A304 RMK A01 T10161027  RH  092%=      5-min Rain = 0
KNH1 151341Z 25004KT M02/M03 A304 RMK A01 T10161027  RH  093%=      5-min Rain = 0
KNH1 151342Z 25004KT M02/M03 A304 RMK A01 T10151026  RH  093%=      5-min Rain = 0
KNH1 151343Z 24004KT M02/M03 A304 RMK A01 T10151025  RH  093%=      5-min Rain = 0
KNH1 151344Z 24004KT M01/M02 A304 RMK A01 T10141024  RH  093%=      5-min Rain = 0
KNH1 151345Z 23003KT M01/M02 A304 RMK A01 T10141023  RH  093%=      5-min Rain = 0
KNH1 151346Z 23003KT M01/M02 A304 RMK A01 T10121022  RH  093%=      5-min Rain = 0
KNH1 151347Z 23003KT M01/M02 A304 RMK A01 T10111021  RH  093%=      5-min Rain = 0
KNH1 151348Z 23003KT M01/M02 A304 RMK A01 T10101020  RH  093%=      5-min Rain = 0
KNH1 151349Z 23003KT M01/M02 A304 RMK A01 T10101020  RH  093%=      5-min Rain = 0
KNH1 151350Z 23003KT M01/M02 A304 RMK A01 T10091019  RH  093%=      5-min Rain = 0
KNH1 151351Z 22003KT M01/M02 A304 RMK A01 T10081019  RH  092%=      5-min Rain = 0
KNH1 151352Z 22003KT M01/M02 A304 RMK A01 T10071018  RH  092%=      5-min Rain = 0
KNH1 151353Z 22004KT M01/M02 A304 RMK A01 T10061018  RH  092%=      5-min Rain = 0
KNH1 151354Z 22004KT M01/M02 A304 RMK A01 T10051017  RH  091%=      5-min Rain = 0
KNH1 151355Z 23004KT M00/M02 A304 RMK A01 T10041017  RH  091%=      5-min Rain = 0
KNH1 151356Z 23004KT M00/M02 A304 RMK A01 T10031016  RH  091%=      5-min Rain = 0
KNH1 151357Z 23004KT M00/M02 A304 RMK A01 T10021016  RH  090%=      5-min Rain = 0
KNH1 151358Z 23004KT M00/M02 A304 RMK A01 T10011015  RH  090%=      5-min Rain = 0
KNH1 151359Z 23004KT 00/02 A304 RMK A01 T00000-15  RH  090%=      5-min Rain = 0
KNH1 151400Z 23004KT 00/M02 A304 RMK A01 T00011015  RH  089%=      5-min Rain = 0
KNH1 151401Z 23004KT 00/M02 A304 RMK A01 T00021015  RH  088%=      5-min Rain = 0
KNH1 151402Z 23004KT 00/M02 A304 RMK A01 T00031015  RH  087%=      5-min Rain = 0
KNH1 151403Z 23004KT 00/M02 A304 RMK A01 T00041016  RH  086%=      5-min Rain = 0
KNH1 151404Z 23004KT 01/M02 A304 RMK A01 T00051016  RH  086%=      5-min Rain = 0
KNH1 151405Z 23004KT 01/M02 A304 RMK A01 T00061015  RH  086%=      5-min Rain = 0
KNH1 151406Z 23004KT 01/M02 A304 RMK A01 T00061015  RH  086%=      5-min Rain = 0
KNH1 151407Z 23004KT 01/M02 A304 RMK A01 T00071015  RH  085%=      5-min Rain = 0
KNH1 151408Z 23005KT 01/M01 A304 RMK A01 T00071014  RH  085%=      5-min Rain = 0
KNH1 151409Z 23004KT 01/M01 A304 RMK A01 T00081014  RH  085%=      5-min Rain = 0
KNH1 151410Z 23004KT 01/M01 A304 RMK A01 T00091014  RH  085%=      5-min Rain = 0
KNH1 151411Z 24004KT 01/M01 A304 RMK A01 T00091014  RH  084%=      5-min Rain = 0
KNH1 151412Z 24004KT 01/M01 A304 RMK A01 T00101014  RH  084%=      5-min Rain = 0
KNH1 151413Z 24004KT 01/M01 A304 RMK A01 T00101013  RH  084%=      5-min Rain = 0
KNH1 151414Z 24004KT 01/M01 A304 RMK A01 T00111014  RH  084%=      5-min Rain = 0
KNH1 151415Z 24004KT 01/M01 A304 RMK A01 T00111014  RH  084%=      5-min Rain = 0
KNH1 151416Z 24004KT 01/M01 A3041 RMK A01 T00121013  RH  084%=      5-min Rain = 0
KNH1 151417Z 23003KT 01/M01 A304 RMK A01 T00121012  RH  084%=      5-min Rain = 0
KNH1 151418Z 23003KT 01/M01 A304 RMK A01 T00121012  RH  084%=      5-min Rain = 0
KNH1 151419Z 23003KT 01/M01 A304 RMK A01 T00131012  RH  084%=      5-min Rain = 0
KNH1 151420Z 24004KT 01/M01 A304 RMK A01 T00131011  RH  084%=      5-min Rain = 0
KNH1 151421Z 24003KT 01/M01 A304 RMK A01 T00141011  RH  084%=      5-min Rain = 0
KNH1 151422Z 24004KT 02/M01 A304 RMK A01 T00151010  RH  084%=      5-min Rain = 0
KNH1 151423Z 24004KT 02/M01 A304 RMK A01 T00161010  RH  083%=      5-min Rain = 0
KNH1 151424Z 25005KT 02/M01 A3041 RMK A01 T00161011  RH  083%=      5-min Rain = 0
KNH1 151425Z 25005KT 02/M01 A3041 RMK A01 T00161011  RH  083%=      5-min Rain = 0
KNH1 151426Z 25005KT 02/M01 A3041 RMK A01 T00161010  RH  083%=      5-min Rain = 0
KNH1 151427Z 25005KT 02/M01 A3041 RMK A01 T00161010  RH  083%=      5-min Rain = 0
KNH1 151428Z 26005KT 02/M01 A3041 RMK A01 T00151010  RH  083%=      5-min Rain = 0
KNH1 151429Z 26004KT 02/M01 A3041 RMK A01 T00151010  RH  083%=      5-min Rain = 0
KNH1 151430Z 26005KT 02/M01 A3041 RMK A01 T00161010  RH  083%=      5-min Rain = 0
KNH1 151431Z 26005KT 02/M01 A3041 RMK A01 T00161010  RH  083%=      5-min Rain = 0
KNH1 151432Z 27005KT 02/M01 A3041 RMK A01 T00161009  RH  083%=      5-min Rain = 0
KNH1 151433Z 27005KT 02/M01 A3041 RMK A01 T00171008  RH  083%=      5-min Rain = 0
KNH1 151434Z 27004KT 02/M01 A3041 RMK A01 T00171007  RH  084%=      5-min Rain = 0
KNH1 151435Z 27004KT 02/M01 A3041 RMK A01 T00181006  RH  084%=      5-min Rain = 0
KNH1 151436Z 26005KT 02/M01 A3041 RMK A01 T00181007  RH  084%=      5-min Rain = 0
KNH1 151437Z 27006KT 02/M01 A3041 RMK A01 T00181008  RH  083%=      5-min Rain = 0
KNH1 151438Z 26005KT 02/M01 A3041 RMK A01 T00181007  RH  083%=      5-min Rain = 0
KNH1 151439Z 26004KT 02/M01 A3041 RMK A01 T00191006  RH  084%=      5-min Rain = 0
KNH1 151440Z 26005KT 02/M01 A3041 RMK A01 T00201005  RH  083%=      5-min Rain = 0
KNH1 151441Z 26005KT 02/M00 A3041 RMK A01 T00211004  RH  084%=      5-min Rain = 0
KNH1 151442Z 27005KT 02/M00 A3041 RMK A01 T00221004  RH  083%=      5-min Rain = 0
KNH1 151443Z 25005KT 02/M00 A3041 RMK A01 T00231003  RH  083%=      5-min Rain = 0
KNH1 151444Z 25006KT 02/M00 A304 RMK A01 T00231004  RH  083%=      5-min Rain = 0
KNH1 151445Z 25006KT 02/M00 A304 RMK A01 T00241004  RH  082%=      5-min Rain = 0
KNH1 151446Z 26005KT 03/M00 A304 RMK A01 T00251003  RH  082%=      5-min Rain = 0
KNH1 151447Z 26005KT 03/M00 A304 RMK A01 T00251004  RH  081%=      5-min Rain = 0
KNH1 151448Z 26005KT 03/M00 A3041 RMK A01 T00261002  RH  082%=      5-min Rain = 0
KNH1 151449Z 26006KT 03/M00 A3041 RMK A01 T00271002  RH  081%=      5-min Rain = 0
KNH1 151450Z 25006KT 03/M00 A3041 RMK A01 T00271004  RH  080%=      5-min Rain = 0
KNH1 151451Z 25007KT 03/M00 A3041 RMK A01 T00271003  RH  080%=      5-min Rain = 0
KNH1 151452Z 25006KT 03/M00 A3041 RMK A01 T00281004  RH  079%=      5-min Rain = 0
KNH1 151453Z 25005KT 03/M00 A304 RMK A01 T00281003  RH  080%=      5-min Rain = 0
KNH1 151454Z 25005KT 03/M00 A304 RMK A01 T00301001  RH  080%=      5-min Rain = 0
KNH1 151455Z 25006KT 03/00 A304 RMK A01 T00310002  RH  081%=      5-min Rain = 0
KNH1 151456Z 25006KT 03/00 A304 RMK A01 T00320001  RH  080%=      5-min Rain = 0
KNH1 151457Z 25005KT 03/00 A304 RMK A01 T00330002  RH  080%=      5-min Rain = 0
KNH1 151458Z 25006KT 03/00 A304 RMK A01 T00340003  RH  080%=      5-min Rain = 0
KNH1 151459Z 25005KT 04/00 A304 RMK A01 T00350003  RH  079%=      5-min Rain = 0
KNH1 151500Z 25006KT 04/00 A304 RMK A01 T00360004  RH  079%=      5-min Rain = 0
KNH1 151501Z 25006KT 04/00 A304 RMK A01 T00370003  RH  078%=      5-min Rain = 0
KNH1 151502Z 24005KT 04/00 A304 RMK A01 T00370004  RH  079%=      5-min Rain = 0
KNH1 151503Z 25005KT 04/01 A304 RMK A01 T00390005  RH  079%=      5-min Rain = 0
KNH1 151504Z 25006KT 04/01 A304 RMK A01 T00410007  RH  078%=      5-min Rain = 0
KNH1 151505Z 25007KT 04/00 A304 RMK A01 T00420004  RH  077%=      5-min Rain = 0
KNH1 151506Z 24007KT 04/00 A304 RMK A01 T00430004  RH  076%=      5-min Rain = 0
KNH1 151507Z 24006KT 04/00 A304 RMK A01 T00430002  RH  075%=      5-min Rain = 0
KNH1 151508Z 24005KT 04/00 A304 RMK A01 T00440004  RH  075%=      5-min Rain = 0
KNH1 151509Z 24007KT 05/00 A304 RMK A01 T00450004  RH  075%=      5-min Rain = 0
KNH1 151510Z 24006KT 05/00 A304 RMK A01 T00450002  RH  074%=      5-min Rain = 0
KNH1 151511Z 24005KT 05/01 A304 RMK A01 T00450005  RH  075%=      5-min Rain = 0
KNH1 151512Z 24005KT 05/01 A304 RMK A01 T00470006  RH  075%=      5-min Rain = 0
KNH1 151513Z 23006KT 05/00 A304 RMK A01 T00470004  RH  074%=      5-min Rain = 0
KNH1 151514Z 24007KT 05/01 A304 RMK A01 T00480005  RH  074%=      5-min Rain = 0
KNH1 151515Z 24007KT 05/00 A304 RMK A01 T00480002  RH  072%=      5-min Rain = 0
KNH1 151516Z 24007KT 05/00 A304 RMK A01 T00480002  RH  072%=      5-min Rain = 0
KNH1 151517Z 24006KT 05/00 A304 RMK A01 T00480003  RH  073%=      5-min Rain = 0
KNH1 151518Z 25006KT 05/01 A304 RMK A01 T00490005  RH  073%=      5-min Rain = 0
KNH1 151519Z 24006KT 05/01 A304 RMK A01 T00500006  RH  073%=      5-min Rain = 0
KNH1 151520Z 23006KT 05/01 A304 RMK A01 T00510008  RH  074%=      5-min Rain = 0
KNH1 151521Z 24006KT 05/01 A304 RMK A01 T00520007  RH  072%=      5-min Rain = 0
KNH1 151522Z 23005KT 05/01 A304 RMK A01 T00520006  RH  072%=      5-min Rain = 0
KNH1 151523Z 24005KT 05/01 A304 RMK A01 T00530007  RH  073%=      5-min Rain = 0
KNH1 151524Z 24005KT 05/01 A304 RMK A01 T00540007  RH  072%=      5-min Rain = 0
KNH1 151525Z 23005KT 05/01 A304 RMK A01 T00540007  RH  072%=      5-min Rain = 0
KNH1 151526Z 24005KT 06/01 A304 RMK A01 T00550008  RH  071%=      5-min Rain = 0
KNH1 151527Z 24005KT 06/01 A304 RMK A01 T00560009  RH  071%=      5-min Rain = 0
KNH1 151528Z 23005KT 06/01 A304 RMK A01 T00570009  RH  071%=      5-min Rain = 0
KNH1 151529Z 23005KT 06/01 A304 RMK A01 T00590011  RH  071%=      5-min Rain = 0
KNH1 151530Z 23008KT 06/01 A304 RMK A01 T00610010  RH  070%=      5-min Rain = 0
KNH1 151531Z 23008KT 06/01 A304 RMK A01 T00610008  RH  068%=      5-min Rain = 0
KNH1 151532Z 23008KT 06/01 A304 RMK A01 T00620007  RH  068%=      5-min Rain = 0
KNH1 151533Z 23007KT 06/01 A304 RMK A01 T00630008  RH  068%=      5-min Rain = 0
KNH1 151534Z 23007KT 06/01 A304 RMK A01 T00640009  RH  067%=      5-min Rain = 0
KNH1 151535Z 24007KT 07/01 A304 RMK A01 T00650010  RH  068%=      5-min Rain = 0
KNH1 151536Z 22007KT 07/01 A304 RMK A01 T00670011  RH  068%=      5-min Rain = 0
KNH1 151537Z 22007KT 07/01 A304 RMK A01 T00680008  RH  066%=      5-min Rain = 0
KNH1 151538Z 22008KT 07/01 A304 RMK A01 T00680009  RH  066%=      5-min Rain = 0
KNH1 151539Z 23008KT 07/01 A304 RMK A01 T00680008  RH  066%=      5-min Rain = 0
KNH1 151540Z 23008KT 07/01 A304 RMK A01 T00690009  RH  066%=      5-min Rain = 0
KNH1 151541Z 23008KT 07/01 A304 RMK A01 T00680007  RH  065%=      5-min Rain = 0
KNH1 151542Z 22007KT 07/01 A304 RMK A01 T00690007  RH  065%=      5-min Rain = 0
KNH1 151543Z 23008KT 07/01 A304 RMK A01 T00690007  RH  065%=      5-min Rain = 0
KNH1 151544Z 23006KT 07/01 A304 RMK A01 T00680008  RH  065%=      5-min Rain = 0
KNH1 151545Z 23006KT 07/01 A304 RMK A01 T00700010  RH  066%=      5-min Rain = 0
KNH1 151546Z 22007KT 07/01 A304 RMK A01 T00710008  RH  064%=      5-min Rain = 0
KNH1 151547Z 22007KT 07/01 A304 RMK A01 T00710009  RH  065%=      5-min Rain = 0
KNH1 151548Z 22007KT 07/01 A304 RMK A01 T00710008  RH  064%=      5-min Rain = 0
KNH1 151549Z 23007KT 07/01 A304 RMK A01 T00710008  RH  064%=      5-min Rain = 0
KNH1 151550Z 23008KT 07/01 A304 RMK A01 T00720009  RH  064%=      5-min Rain = 0
KNH1 151551Z 22009KT 07/01 A304 RMK A01 T00710007  RH  064%=      5-min Rain = 0
KNH1 151552Z 23009KT 07/01 A304 RMK A01 T00720007  RH  063%=      5-min Rain = 0
KNH1 151553Z 23009KT 07/01 A304 RMK A01 T00720005  RH  062%=      5-min Rain = 0
KNH1 151554Z 23008KT 07/01 A304 RMK A01 T00710005  RH  063%=      5-min Rain = 0
KNH1 151555Z 23008KT 07/01 A304 RMK A01 T00720008  RH  064%=      5-min Rain = 0
KNH1 151556Z 23006KT 07/01 A304 RMK A01 T00720008  RH  063%=      5-min Rain = 0
KNH1 151557Z 24008KT 07/01 A304 RMK A01 T00740012  RH  065%=      5-min Rain = 0
KNH1 151558Z 23008KT 08/01 A304 RMK A01 T00750009  RH  063%=      5-min Rain = 0
KNH1 151559Z 23008KT 08/01 A304 RMK A01 T00750008  RH  063%=      5-min Rain = 0
KNH1 151600Z 23008KT 08/01 A304 RMK A01 T00750008  RH  063%=      5-min Rain = 0
KNH1 151601Z 22007KT 08/01 A304 RMK A01 T00750009  RH  063%=      5-min Rain = 0
KNH1 151602Z 23007KT 08/01 A304 RMK A01 T00770013  RH  064%=      5-min Rain = 0
KNH1 151603Z 22009KT 08/01 A304 RMK A01 T00780009  RH  062%=      5-min Rain = 0
KNH1 151604Z 22009KT 08/01 A304 RMK A01 T00770008  RH  062%=      5-min Rain = 0
KNH1 151605Z 22007KT 08/01 A304 RMK A01 T00760009  RH  062%=      5-min Rain = 0
KNH1 151606Z 22009KT 08/01 A304 RMK A01 T00780011  RH  062%=      5-min Rain = 0
KNH1 151607Z 23009KT 08/01 A304 RMK A01 T00780009  RH  062%=      5-min Rain = 0
KNH1 151608Z 22008KT 08/01 A304 RMK A01 T00780010  RH  062%=      5-min Rain = 0
KNH1 151609Z 22008KT 08/01 A304 RMK A01 T00780010  RH  062%=      5-min Rain = 0
KNH1 151610Z 22008KT 08/01 A304 RMK A01 T00780010  RH  062%=      5-min Rain = 0
KNH1 151611Z 23009KT 08/01 A304 RMK A01 T00780009  RH  062%=      5-min Rain = 0
KNH1 151612Z 22008KT 08/01 A304 RMK A01 T00790012  RH  063%=      5-min Rain = 0
KNH1 151613Z 22008KT 08/01 A304 RMK A01 T00820013  RH  062%=      5-min Rain = 0
KNH1 151614Z 22009KT 08/01 A304 RMK A01 T00820011  RH  061%=      5-min Rain = 0
KNH1 151615Z 22007KT 08/01 A304 RMK A01 T00820011  RH  061%=      5-min Rain = 0
KNH1 151616Z 22008KT 08/01 A304 RMK A01 T00840013  RH  061%=      5-min Rain = 0
KNH1 151617Z 22009KT 09/01 A304 RMK A01 T00850013  RH  060%=      5-min Rain = 0
KNH1 151618Z 22009KT 09/01 A304 RMK A01 T00860013  RH  060%=      5-min Rain = 0
KNH1 151619Z 22010KT 09/01 A304 RMK A01 T00870011  RH  059%=      5-min Rain = 0
KNH1 151620Z 22010KT 09/01 A304 RMK A01 T00870010  RH  059%=      5-min Rain = 0
KNH1 151621Z 22009KT 09/01 A304 RMK A01 T00860009  RH  058%=      5-min Rain = 0
KNH1 151622Z 22008KT 09/01 A304 RMK A01 T00860010  RH  059%=      5-min Rain = 0
KNH1 151623Z 22008KT 09/01 A304 RMK A01 T00870012  RH  059%=      5-min Rain = 0
KNH1 151624Z 22009KT 09/01 A304 RMK A01 T00880012  RH  059%=      5-min Rain = 0
KNH1 151625Z 22010KT 09/01 A304 RMK A01 T00880010  RH  058%=      5-min Rain = 0
KNH1 151626Z 22009KT 09/01 A304 RMK A01 T00890009  RH  057%=      5-min Rain = 0
KNH1 151627Z 22009KT 09/01 A304 RMK A01 T00890009  RH  057%=      5-min Rain = 0
KNH1 151628Z 23010KT 09/01 A304 RMK A01 T00910011  RH  057%=      5-min Rain = 0
KNH1 151629Z 22007KT 09/01 A304 RMK A01 T00910009  RH  056%=      5-min Rain = 0
KNH1 151630Z 22009KT 09/01 A304 RMK A01 T00930012  RH  057%=      5-min Rain = 0
KNH1 151631Z 21010KT 09/01 A304 RMK A01 T00940009  RH  056%=      5-min Rain = 0
KNH1 151632Z 21009KT 09/01 A304 RMK A01 T00930007  RH  055%=      5-min Rain = 0
KNH1 151633Z 21008KT 09/01 A304 RMK A01 T00930007  RH  055%=      5-min Rain = 0
KNH1 151634Z 21007KT 09/01 A304 RMK A01 T00930008  RH  055%=      5-min Rain = 0
KNH1 151635Z 22009KT 09/01 A304 RMK A01 T00940009  RH  055%=      5-min Rain = 0
KNH1 151636Z 23011KT 10/01 A304 RMK A01 T00950010  RH  055%=      5-min Rain = 0
KNH1 151637Z 21009KT 10/01 A304 RMK A01 T00950009  RH  055%=      5-min Rain = 0
KNH1 151638Z 22008KT 10/01 A304 RMK A01 T00950008  RH  055%=      5-min Rain = 0
KNH1 151639Z 23010KT 10/01 A304 RMK A01 T00950010  RH  055%=      5-min Rain = 0
KNH1 151640Z 21008KT 10/01 A304 RMK A01 T00950009  RH  055%=      5-min Rain = 0
KNH1 151641Z 23008KT 10/01 A304 RMK A01 T00960010  RH  055%=      5-min Rain = 0
KNH1 151642Z 23008KT 10/01 A304 RMK A01 T00970012  RH  055%=      5-min Rain = 0
KNH1 151643Z 21010KT 10/01 A3039 RMK A01 T00990012  RH  055%=      5-min Rain = 0
KNH1 151644Z 22008KT 10/01 A304 RMK A01 T00980008  RH  053%=      5-min Rain = 0
KNH1 151645Z 23007KT 10/01 A304 RMK A01 T00990011  RH  054%=      5-min Rain = 0
KNH1 151646Z 22009KT 10/01 A3039 RMK A01 T01010013  RH  054%=      5-min Rain = 0
KNH1 151647Z 21009KT 10/01 A3039 RMK A01 T01020011  RH  053%=      5-min Rain = 0
KNH1 151648Z 21009KT 10/01 A3039 RMK A01 T01010009  RH  053%=      5-min Rain = 0
KNH1 151649Z 21009KT 10/01 A3039 RMK A01 T01000009  RH  053%=      5-min Rain = 0
KNH1 151650Z 22008KT 10/01 A3039 RMK A01 T01000010  RH  054%=      5-min Rain = 0
KNH1 151651Z 22008KT 10/01 A3039 RMK A01 T01000010  RH  054%=      5-min Rain = 0
KNH1 151652Z 22009KT 10/01 A3039 RMK A01 T01010010  RH  053%=      5-min Rain = 0
KNH1 151653Z 21009KT 10/01 A3039 RMK A01 T01020010  RH  053%=      5-min Rain = 0
KNH1 151654Z 21009KT 10/01 A3039 RMK A01 T01030010  RH  053%=      5-min Rain = 0
KNH1 151655Z 22008KT 10/01 A3039 RMK A01 T01030010  RH  052%=      5-min Rain = 0
KNH1 151656Z 21010KT 10/01 A3039 RMK A01 T01040011  RH  053%=      5-min Rain = 0
KNH1 151657Z 22011KT 10/01 A3039 RMK A01 T01040008  RH  051%=      5-min Rain = 0
KNH1 151658Z 21011KT 10/01 A3039 RMK A01 T01030007  RH  051%=      5-min Rain = 0
KNH1 151659Z 22010KT 10/01 A3039 RMK A01 T01020008  RH  052%=      5-min Rain = 0
KNH1 151700Z 21008KT 10/01 A3039 RMK A01 T01020008  RH  052%=      5-min Rain = 0
KNH1 151701Z 21010KT 10/01 A3039 RMK A01 T01020009  RH  052%=      5-min Rain = 0
KNH1 151702Z 21011KT 10/01 A3039 RMK A01 T01040007  RH  051%=      5-min Rain = 0
KNH1 151703Z 21009KT 10/01 A3039 RMK A01 T01040007  RH  051%=      5-min Rain = 0
KNH1 151704Z 20010KT 11/01 A3039 RMK A01 T01050008  RH  051%=      5-min Rain = 0
KNH1 151705Z 21011KT 11/01 A3039 RMK A01 T01050009  RH  051%=      5-min Rain = 0
KNH1 151706Z 21011KT 11/01 A3039 RMK A01 T01050007  RH  051%=      5-min Rain = 0
KNH1 151707Z 22011KT 11/01 A3039 RMK A01 T01050007  RH  050%=      5-min Rain = 0
KNH1 151708Z 22010KT 11/01 A3039 RMK A01 T01060005  RH  050%=      5-min Rain = 0
KNH1 151709Z 22009KT 11/01 A3039 RMK A01 T01060007  RH  050%=      5-min Rain = 0
KNH1 151710Z 21011KT 11/01 A3039 RMK A01 T01090009  RH  050%=      5-min Rain = 0
KNH1 151711Z 21013KT 11/01 A3039 RMK A01 T01100005  RH  049%=      5-min Rain = 0
KNH1 151712Z 21009KT 11/00 A3039 RMK A01 T01070003  RH  048%=      5-min Rain = 0
KNH1 151713Z 22010KT 11/01 A3039 RMK A01 T01080006  RH  049%=      5-min Rain = 0
KNH1 151714Z 22010KT 11/01 A3038 RMK A01 T01080007  RH  050%=      5-min Rain = 0
KNH1 151715Z 21010KT 11/01 A3038 RMK A01 T01090009  RH  050%=      5-min Rain = 0
KNH1 151716Z 21012KT 11/01 A3038 RMK A01 T01120009  RH  049%=      5-min Rain = 0
KNH1 151717Z 20009KT 11/00 A3038 RMK A01 T01110003  RH  047%=      5-min Rain = 0
KNH1 151718Z 20011KT 11/00 A3038 RMK A01 T01120002  RH  047%=      5-min Rain = 0
KNH1 151719Z 20013KT 11/00 A3038 RMK A01 T01130001  RH  046%=      5-min Rain = 0
KNH1 151720Z 21011KT 11/00 A3038 RMK A01 T01120002  RH  047%=      5-min Rain = 0
KNH1 151721Z 21011KT 11/00 A3038 RMK A01 T01110003  RH  047%=      5-min Rain = 0
KNH1 151722Z 21011KT 11/00 A3038 RMK A01 T01110001  RH  047%=      5-min Rain = 0
KNH1 151723Z 22011KT 11/00 A3038 RMK A01 T01100002  RH  047%=      5-min Rain = 0
KNH1 151724Z 21010KT 11/01 A3038 RMK A01 T01120006  RH  048%=      5-min Rain = 0
KNH1 151725Z 23010KT 11/01 A3038 RMK A01 T01140007  RH  048%=      5-min Rain = 0
KNH1 151726Z 22009KT 12/01 A3038 RMK A01 T01150007  RH  048%=      5-min Rain = 0
KNH1 151727Z 20012KT 12/01 A3038 RMK A01 T01150005  RH  047%=      5-min Rain = 0
KNH1 151728Z 20011KT 11/00 A3038 RMK A01 T011400-0  RH  045%=      5-min Rain = 0
KNH1 151729Z 19012KT 11/M00 A3038 RMK A01 T01141002  RH  045%=      5-min Rain = 0
KNH1 151730Z 20011KT 11/M01 A3038 RMK A01 T01141005  RH  044%=      5-min Rain = 0
KNH1 151731Z 20013KT 12/M00 A3038 RMK A01 T01151003  RH  044%=      5-min Rain = 0
KNH1 151732Z 21011KT 12/M00 A3038 RMK A01 T01161001  RH  045%=      5-min Rain = 0
KNH1 151733Z 20011KT 12/M00 A3038 RMK A01 T01161001  RH  045%=      5-min Rain = 0
KNH1 151734Z 20011KT 12/00 A3038 RMK A01 T01170001  RH  045%=      5-min Rain = 0
KNH1 151735Z 21010KT 12/00 A3038 RMK A01 T01180004  RH  045%=      5-min Rain = 0
KNH1 151736Z 21012KT 12/M00 A3038 RMK A01 T01181001  RH  044%=      5-min Rain = 0
KNH1 151737Z 21012KT 12/M00 A3038 RMK A01 T01161001  RH  044%=      5-min Rain = 0
KNH1 151738Z 21011KT 12/M00 A3037 RMK A01 T01151002  RH  044%=      5-min Rain = 0
KNH1 151739Z 21012KT 12/M00 A3037 RMK A01 T01161002  RH  044%=      5-min Rain = 0
KNH1 151740Z 21010KT 12/00 A3037 RMK A01 T011700-0  RH  044%=      5-min Rain = 0
KNH1 151741Z 20012KT 12/M00 A3037 RMK A01 T01171003  RH  044%=      5-min Rain = 0
KNH1 151742Z 20011KT 12/M00 A3037 RMK A01 T01151003  RH  044%=      5-min Rain = 0
KNH1 151743Z 20012KT 12/00 A3037 RMK A01 T01160000  RH  045%=      5-min Rain = 0
KNH1 151744Z 19012KT 12/00 A3037 RMK A01 T01170001  RH  045%=      5-min Rain = 0
KNH1 151745Z 21011KT 12/00 A3037 RMK A01 T01170001  RH  045%=      5-min Rain = 0
KNH1 151746Z 19011KT 12/M00 A3037 RMK A01 T01161001  RH  045%=      5-min Rain = 0
KNH1 151747Z 20012KT 12/00 A3037 RMK A01 T011700-0  RH  044%=      5-min Rain = 0
KNH1 151748Z 20013KT 12/00 A3037 RMK A01 T011700-0  RH  044%=      5-min Rain = 0
KNH1 151749Z 20015KT 12/M00 A3037 RMK A01 T01171002  RH  044%=      5-min Rain = 0
KNH1 151750Z 22013KT 12/M00 A3037 RMK A01 T01161002  RH  044%=      5-min Rain = 0
KNH1 151751Z 22012KT 12/M00 A3037 RMK A01 T01171004  RH  043%=      5-min Rain = 0
KNH1 151752Z 21011KT 12/00 A3037 RMK A01 T011700-0  RH  044%=      5-min Rain = 0
KNH1 151753Z 20010KT 12/00 A3037 RMK A01 T01180001  RH  044%=      5-min Rain = 0
KNH1 151754Z 20010KT 12/00 A3037 RMK A01 T01190002  RH  044%=      5-min Rain = 0
KNH1 151755Z 22011KT 12/00 A3037 RMK A01 T011900-0  RH  044%=      5-min Rain = 0
KNH1 151756Z 20011KT 12/M00 A3036 RMK A01 T01181002  RH  043%=      5-min Rain = 0
KNH1 151757Z 19014KT 12/M00 A3036 RMK A01 T01191001  RH  044%=      5-min Rain = 0
KNH1 151758Z 20010KT 12/00 A3036 RMK A01 T012000-0  RH  043%=      5-min Rain = 0
KNH1 151759Z 22011KT 12/00 A3036 RMK A01 T01220000  RH  043%=      5-min Rain = 0
KNH1 151800Z 22010KT 12/00 A3036 RMK A01 T012100-0  RH  043%=      5-min Rain = 0
KNH1 151801Z 20011G16KT 12/M00 A3036 RMK A01 T01211003  RH  042%=      5-min Rain = 0
KNH1 151802Z 21013KT 12/M00 A3036 RMK A01 T01211003  RH  042%=      5-min Rain = 0
KNH1 151803Z 21011KT 12/M00 A3036 RMK A01 T01211003  RH  042%=      5-min Rain = 0
KNH1 151804Z 21010KT 12/M00 A3036 RMK A01 T01211003  RH  042%=      5-min Rain = 0
KNH1 151805Z 22011KT 12/M00 A3036 RMK A01 T01211003  RH  042%=      5-min Rain = 0
KNH1 151806Z 23010KT 12/M00 A3036 RMK A01 T01201004  RH  042%=      5-min Rain = 0
KNH1 151807Z 21014KT 12/M00 A3036 RMK A01 T01211002  RH  043%=      5-min Rain = 0
KNH1 151808Z 22011KT 12/M00 A3036 RMK A01 T01211003  RH  042%=      5-min Rain = 0
KNH1 151809Z 21010KT 12/M00 A3036 RMK A01 T01221001  RH  043%=      5-min Rain = 0
KNH1 151810Z 20010G15KT 12/M00 A3036 RMK A01 T01231002  RH  042%=      5-min Rain = 0
KNH1 151811Z 20013KT 12/M00 A3036 RMK A01 T01241001  RH  042%=      5-min Rain = 0
KNH1 151812Z 20011KT 12/M00 A3036 RMK A01 T01241003  RH  042%=      5-min Rain = 0
KNH1 151813Z 21013KT 12/M01 A3036 RMK A01 T01231007  RH  041%=      5-min Rain = 0
KNH1 151814Z 21010KT 12/M01 A3036 RMK A01 T01231006  RH  041%=      5-min Rain = 0
KNH1 151815Z 22011KT 12/M00 A3035 RMK A01 T01231004  RH  041%=      5-min Rain = 0
KNH1 151816Z 22012KT 12/M00 A3035 RMK A01 T01241003  RH  041%=      5-min Rain = 0
KNH1 151817Z 23013KT 12/M00 A3035 RMK A01 T01241004  RH  041%=      5-min Rain = 0
KNH1 151818Z 22013KT 12/M00 A3035 RMK A01 T01241004  RH  041%=      5-min Rain = 0
KNH1 151819Z 21012KT 12/M01 A3035 RMK A01 T01241006  RH  041%=      5-min Rain = 0
KNH1 151820Z 20010KT 12/M01 A3035 RMK A01 T01231006  RH  041%=      5-min Rain = 0
KNH1 151821Z 21012KT 12/M01 A3035 RMK A01 T01241005  RH  041%=      5-min Rain = 0
KNH1 151822Z 22012KT 13/M01 A3035 RMK A01 T01271006  RH  040%=      5-min Rain = 0
KNH1 151823Z 21012KT 13/M01 A3035 RMK A01 T01261008  RH  039%=      5-min Rain = 0
KNH1 151824Z 21011KT 13/M01 A3035 RMK A01 T01251010  RH  039%=      5-min Rain = 0
KNH1 151825Z 22011KT 13/M01 A3035 RMK A01 T01251006  RH  040%=      5-min Rain = 0
KNH1 151826Z 22010G15KT 13/M00 A3035 RMK A01 T01271001  RH  041%=      5-min Rain = 0
KNH1 151827Z 22013KT 13/M00 A3034 RMK A01 T01291004  RH  040%=      5-min Rain = 0
KNH1 151828Z 23011KT 13/M00 A3034 RMK A01 T01291003  RH  040%=      5-min Rain = 0
KNH1 151829Z 22012KT 13/M00 A3034 RMK A01 T01281003  RH  041%=      5-min Rain = 0
KNH1 151830Z 22011KT 13/M01 A3034 RMK A01 T01261005  RH  040%=      5-min Rain = 0
KNH1 151831Z 23012KT 13/M01 A3034 RMK A01 T01251006  RH  040%=      5-min Rain = 0
KNH1 151832Z 22011KT 13/M00 A3034 RMK A01 T01261004  RH  041%=      5-min Rain = 0
KNH1 151833Z 22013KT 13/M00 A3034 RMK A01 T01281002  RH  041%=      5-min Rain = 0
KNH1 151834Z 23012KT 13/M00 A3034 RMK A01 T01301003  RH  040%=      5-min Rain = 0
KNH1 151835Z 23014KT 13/M01 A3034 RMK A01 T01301005  RH  039%=      5-min Rain = 0
KNH1 151836Z 23013KT 13/M01 A3034 RMK A01 T01301006  RH  039%=      5-min Rain = 0
KNH1 151837Z 22010KT 13/M01 A3034 RMK A01 T01291006  RH  039%=      5-min Rain = 0
KNH1 151838Z 21010KT 13/M00 A3034 RMK A01 T01291004  RH  040%=      5-min Rain = 0
KNH1 151839Z 22011KT 13/M00 A3033 RMK A01 T01311003  RH  040%=      5-min Rain = 0
KNH1 151840Z 22010KT 13/M00 A3033 RMK A01 T01311004  RH  039%=      5-min Rain = 0
KNH1 151841Z 22012KT 13/M00 A3033 RMK A01 T01291003  RH  040%=      5-min Rain = 0
KNH1 151842Z 23012KT 13/M01 A3033 RMK A01 T01311006  RH  039%=      5-min Rain = 0
KNH1 151843Z 23011KT 13/M01 A3033 RMK A01 T01311007  RH  039%=      5-min Rain = 0
KNH1 151844Z 21011KT 13/M01 A3033 RMK A01 T01311005  RH  039%=      5-min Rain = 0
KNH1 151845Z 21011KT 13/M00 A3033 RMK A01 T01321004  RH  039%=      5-min Rain = 0
KNH1 151846Z 22014KT 13/M00 A3033 RMK A01 T01321003  RH  039%=      5-min Rain = 0
KNH1 151847Z 22011KT 13/M00 A3033 RMK A01 T01331004  RH  039%=      5-min Rain = 0
KNH1 151848Z 21010KT 13/M00 A3033 RMK A01 T01311004  RH  039%=      5-min Rain = 0
KNH1 151849Z 21010KT 13/M00 A3033 RMK A01 T01331003  RH  039%=      5-min Rain = 0
KNH1 151850Z 23011KT 13/M00 A3033 RMK A01 T01331004  RH  039%=      5-min Rain = 0
KNH1 151851Z 22012KT 13/M00 A3033 RMK A01 T01341004  RH  039%=      5-min Rain = 0
KNH1 151852Z 22012KT 14/M01 A3032 RMK A01 T01351007  RH  038%=      5-min Rain = 0
KNH1 151853Z 23010KT 13/M01 A3032 RMK A01 T01341005  RH  038%=      5-min Rain = 0
KNH1 151854Z 22010KT 14/M00 A3032 RMK A01 T01351003  RH  039%=      5-min Rain = 0
KNH1 151855Z 22010KT 14/M01 A3032 RMK A01 T01351006  RH  038%=      5-min Rain = 0
KNH1 151856Z 22015KT 13/M01 A3032 RMK A01 T01341007  RH  038%=      5-min Rain = 0
KNH1 151857Z 23014KT 13/M01 A3032 RMK A01 T01341011  RH  037%=      5-min Rain = 0
KNH1 151858Z 23012KT 13/M01 A3032 RMK A01 T01341010  RH  037%=      5-min Rain = 0
KNH1 151859Z 23013KT 14/M01 A3032 RMK A01 T01351008  RH  037%=      5-min Rain = 0
KNH1 151900Z 23013KT 14/M01 A3032 RMK A01 T01361009  RH  037%=      5-min Rain = 0
KNH1 151901Z 23013KT 14/M01 A3032 RMK A01 T01361011  RH  036%=      5-min Rain = 0
KNH1 151902Z 22013KT 14/M01 A3032 RMK A01 T01351009  RH  037%=      5-min Rain = 0
KNH1 151903Z 22011KT 13/M01 A3032 RMK A01 T01341007  RH  038%=      5-min Rain = 0
KNH1 151904Z 22010KT 13/M01 A3032 RMK A01 T01341006  RH  038%=      5-min Rain = 0
KNH1 151905Z 20010KT 14/M01 A3032 RMK A01 T01361006  RH  038%=      5-min Rain = 0
KNH1 151906Z 20011KT 14/M01 A3032 RMK A01 T01371005  RH  038%=      5-min Rain = 0
KNH1 151907Z 20013KT 14/M00 A3031 RMK A01 T01391004  RH  038%=      5-min Rain = 0
KNH1 151908Z 21010KT 14/M01 A3031 RMK A01 T01391006  RH  037%=      5-min Rain = 0
KNH1 151909Z 21013KT 14/M01 A3031 RMK A01 T01381007  RH  037%=      5-min Rain = 0
KNH1 151910Z 20013KT 14/M01 A3031 RMK A01 T01381011  RH  036%=      5-min Rain = 0
KNH1 151911Z 20012KT 14/M01 A3031 RMK A01 T01361012  RH  036%=      5-min Rain = 0
KNH1 151912Z 21010KT 14/M01 A3031 RMK A01 T01351009  RH  037%=      5-min Rain = 0
KNH1 151913Z 21012KT 14/M01 A3031 RMK A01 T01391005  RH  037%=      5-min Rain = 0
KNH1 151914Z 21012KT 14/M01 A3031 RMK A01 T01401007  RH  036%=      5-min Rain = 0
KNH1 151915Z 20011KT 14/M01 A3031 RMK A01 T01391007  RH  037%=      5-min Rain = 0
KNH1 151916Z 20011KT 14/M01 A3031 RMK A01 T01381006  RH  037%=      5-min Rain = 0
KNH1 151917Z 22012KT 14/M00 A3031 RMK A01 T01391003  RH  038%=      5-min Rain = 0
KNH1 151918Z 22009KT 14/M01 A3031 RMK A01 T01391006  RH  037%=      5-min Rain = 0
KNH1 151919Z 22010KT 14/M01 A3031 RMK A01 T01381006  RH  037%=      5-min Rain = 0
KNH1 151920Z 21010KT 14/M00 A3031 RMK A01 T01381004  RH  038%=      5-min Rain = 0
KNH1 151921Z 21011KT 14/M01 A3031 RMK A01 T01391008  RH  036%=      5-min Rain = 0
KNH1 151922Z 21009KT 14/M01 A3031 RMK A01 T01391008  RH  036%=      5-min Rain = 0
KNH1 151923Z 21010KT 14/M01 A303 RMK A01 T01401005  RH  037%=      5-min Rain = 0
KNH1 151924Z 20012KT 14/M01 A303 RMK A01 T01411006  RH  037%=      5-min Rain = 0
KNH1 151925Z 21009G14KT 14/M00 A303 RMK A01 T01411004  RH  037%=      5-min Rain = 0
KNH1 151926Z 20010KT 14/M00 A303 RMK A01 T01431004  RH  036%=      5-min Rain = 0
KNH1 151927Z 20013KT 14/M00 A303 RMK A01 T01431004  RH  036%=      5-min Rain = 0
KNH1 151928Z 20013KT 14/M01 A303 RMK A01 T01431006  RH  036%=      5-min Rain = 0
KNH1 151929Z 20009KT 14/M01 A303 RMK A01 T01411006  RH  036%=      5-min Rain = 0
KNH1 151930Z 21010KT 14/M01 A303 RMK A01 T01411005  RH  037%=      5-min Rain = 0
KNH1 151931Z 21013KT 14/M00 A303 RMK A01 T01431004  RH  036%=      5-min Rain = 0
KNH1 151932Z 20012KT 14/M01 A303 RMK A01 T01441005  RH  036%=      5-min Rain = 0
KNH1 151933Z 21010KT 14/M01 A303 RMK A01 T01421008  RH  036%=      5-min Rain = 0
KNH1 151934Z 20010KT 14/M01 A303 RMK A01 T01411006  RH  036%=      5-min Rain = 0
KNH1 151935Z 22013KT 14/M01 A303 RMK A01 T01421007  RH  036%=      5-min Rain = 0
KNH1 151936Z 22011KT 14/M01 A303 RMK A01 T01431005  RH  036%=      5-min Rain = 0
KNH1 151937Z 22011KT 14/M01 A303 RMK A01 T01441006  RH  036%=      5-min Rain = 0
KNH1 151938Z 22010KT 14/M01 A303 RMK A01 T01431006  RH  036%=      5-min Rain = 0
KNH1 151939Z 21010KT 14/M01 A303 RMK A01 T01421006  RH  036%=      5-min Rain = 0
KNH1 151940Z 20013KT 14/M00 A303 RMK A01 T01431003  RH  037%=      5-min Rain = 0
KNH1 151941Z 22011KT 14/M01 A303 RMK A01 T01441005  RH  036%=      5-min Rain = 0
KNH1 151942Z 21010KT 14/M01 A303 RMK A01 T01441005  RH  036%=      5-min Rain = 0
KNH1 151943Z 22011KT 14/M01 A3029 RMK A01 T01431006  RH  036%=      5-min Rain = 0
KNH1 151944Z 21013KT 14/M00 A303 RMK A01 T01441004  RH  036%=      5-min Rain = 0
KNH1 151945Z 20012KT 15/M01 A303 RMK A01 T01461007  RH  035%=      5-min Rain = 0
KNH1 151946Z 20011KT 15/M01 A303 RMK A01 T01451007  RH  035%=      5-min Rain = 0
KNH1 151947Z 20011KT 15/M01 A3029 RMK A01 T01451005  RH  036%=      5-min Rain = 0
KNH1 151948Z 21009KT 15/M01 A3029 RMK A01 T01451007  RH  035%=      5-min Rain = 0
KNH1 151949Z 20011KT 15/M00 A3029 RMK A01 T01451004  RH  036%=      5-min Rain = 0
KNH1 151950Z 20013KT 15/M01 A3029 RMK A01 T01461006  RH  035%=      5-min Rain = 0
KNH1 151951Z 21009KT 15/M01 A3029 RMK A01 T01451007  RH  035%=      5-min Rain = 0
KNH1 151952Z 21012KT 15/M01 A3029 RMK A01 T01461005  RH  036%=      5-min Rain = 0
KNH1 151953Z 20010KT 15/M01 A3029 RMK A01 T01471006  RH  035%=      5-min Rain = 0
KNH1 151954Z 19012KT 15/M01 A3029 RMK A01 T01471007  RH  035%=      5-min Rain = 0
KNH1 151955Z 20016KT 15/M01 A3029 RMK A01 T01471009  RH  034%=      5-min Rain = 0
KNH1 151956Z 21013KT 15/M01 A3029 RMK A01 T01461010  RH  034%=      5-min Rain = 0
KNH1 151957Z 22011KT 15/M01 A3029 RMK A01 T01461009  RH  035%=      5-min Rain = 0
KNH1 151958Z 24009KT 15/M01 A3029 RMK A01 T01461007  RH  035%=      5-min Rain = 0
KNH1 151959Z 22008KT 15/M01 A3029 RMK A01 T01461007  RH  035%=      5-min Rain = 0
KNH1 152000Z 20009KT 15/M00 A3029 RMK A01 T01461004  RH  036%=      5-min Rain = 0
KNH1 152001Z 20011KT 15/M01 A3029 RMK A01 T01481006  RH  035%=      5-min Rain = 0
KNH1 152002Z 22010KT 15/M01 A3029 RMK A01 T01491005  RH  035%=      5-min Rain = 0
KNH1 152003Z 21009KT 15/M01 A3029 RMK A01 T01491006  RH  034%=      5-min Rain = 0
KNH1 152004Z 20008KT 15/M01 A3029 RMK A01 T01481005  RH  035%=      5-min Rain = 0
KNH1 152005Z 19011KT 15/M00 A3028 RMK A01 T01501004  RH  035%=      5-min Rain = 0
KNH1 152006Z 19010KT 15/M01 A3028 RMK A01 T01501007  RH  034%=      5-min Rain = 0
KNH1 152007Z 21008KT 15/M01 A3028 RMK A01 T01491006  RH  035%=      5-min Rain = 0
KNH1 152008Z 22013KT 15/M01 A3028 RMK A01 T01491006  RH  034%=      5-min Rain = 0
KNH1 152009Z 22010KT 15/M01 A3028 RMK A01 T01481008  RH  034%=      5-min Rain = 0
KNH1 152010Z 21010KT 15/M01 A3028 RMK A01 T01471007  RH  035%=      5-min Rain = 0
KNH1 152011Z 20011KT 15/M00 A3028 RMK A01 T01491004  RH  035%=      5-min Rain = 0
KNH1 152012Z 20010G16KT 15/M01 A3028 RMK A01 T01511006  RH  034%=      5-min Rain = 0
KNH1 152013Z 20014KT 15/M01 A3028 RMK A01 T01511009  RH  033%=      5-min Rain = 0
KNH1 152014Z 21011KT 15/M01 A3028 RMK A01 T01511009  RH  033%=      5-min Rain = 0
KNH1 152015Z 20012KT 15/M01 A3028 RMK A01 T01511009  RH  033%=      5-min Rain = 0
KNH1 152016Z 20012KT 15/M01 A3028 RMK A01 T01521010  RH  033%=      5-min Rain = 0
KNH1 152017Z 20013KT 15/M01 A3028 RMK A01 T01511012  RH  033%=      5-min Rain = 0
KNH1 152018Z 20013KT 15/M01 A3028 RMK A01 T01501010  RH  033%=      5-min Rain = 0
KNH1 152019Z 21012KT 15/M01 A3028 RMK A01 T01491010  RH  034%=      5-min Rain = 0
KNH1 152020Z 20013KT 15/M01 A3028 RMK A01 T01491009  RH  034%=      5-min Rain = 0
KNH1 152021Z 20012KT 15/M01 A3028 RMK A01 T01501011  RH  033%=      5-min Rain = 0
KNH1 152022Z 22010KT 15/M01 A3028 RMK A01 T01491011  RH  033%=      5-min Rain = 0
KNH1 152023Z 20013KT 15/M01 A3028 RMK A01 T01501010  RH  033%=      5-min Rain = 0
KNH1 152024Z 20014KT 15/M01 A3027 RMK A01 T01501012  RH  033%=      5-min Rain = 0
KNH1 152025Z 20013KT 15/M01 A3027 RMK A01 T01511011  RH  033%=      5-min Rain = 0
KNH1 152026Z 22014KT 15/M01 A3027 RMK A01 T01521009  RH  033%=      5-min Rain = 0
KNH1 152027Z 21014KT 15/M01 A3027 RMK A01 T01521009  RH  033%=      5-min Rain = 0
KNH1 152028Z 20014KT 15/M01 A3027 RMK A01 T01511010  RH  033%=      5-min Rain = 0
KNH1 152029Z 21010KT 15/M01 A3027 RMK A01 T01511009  RH  033%=      5-min Rain = 0
KNH1 152030Z 21009KT 15/M01 A3027 RMK A01 T01511010  RH  033%=      5-min Rain = 0
KNH1 152031Z 20010KT 15/M01 A3027 RMK A01 T01511008  RH  034%=      5-min Rain = 0
KNH1 152032Z 20012KT 15/M01 A3027 RMK A01 T01521008  RH  034%=      5-min Rain = 0
KNH1 152033Z 21012KT 15/M01 A3027 RMK A01 T01521009  RH  033%=      5-min Rain = 0
KNH1 152034Z 20011KT 15/M01 A3027 RMK A01 T01501009  RH  033%=      5-min Rain = 0
KNH1 152035Z 19013KT 15/M01 A3027 RMK A01 T01511007  RH  034%=      5-min Rain = 0
KNH1 152036Z 19011KT 15/M01 A3027 RMK A01 T01521006  RH  034%=      5-min Rain = 0
KNH1 152037Z 21011KT 15/M01 A3027 RMK A01 T01531007  RH  033%=      5-min Rain = 0
KNH1 152038Z 19012KT 15/M01 A3027 RMK A01 T01541006  RH  034%=      5-min Rain = 0
KNH1 152039Z 19014KT 15/M01 A3027 RMK A01 T01531006  RH  034%=      5-min Rain = 0
KNH1 152040Z 18012KT 15/M01 A3027 RMK A01 T01521007  RH  034%=      5-min Rain = 0
KNH1 152041Z 18011KT 15/M01 A3027 RMK A01 T01501006  RH  034%=      5-min Rain = 0
KNH1 152042Z 19012KT 15/M01 A3027 RMK A01 T01511006  RH  034%=      5-min Rain = 0
KNH1 152043Z 20014KT 15/M01 A3027 RMK A01 T01521005  RH  034%=      5-min Rain = 0
KNH1 152044Z 21011KT 15/M01 A3027 RMK A01 T01531007  RH  033%=      5-min Rain = 0
KNH1 152045Z 20014KT 16/M01 A3027 RMK A01 T01551007  RH  033%=      5-min Rain = 0
KNH1 152046Z 19013KT 16/M01 A3026 RMK A01 T01551011  RH  032%=      5-min Rain = 0
KNH1 152047Z 19012KT 15/M01 A3026 RMK A01 T01541012  RH  032%=      5-min Rain = 0
KNH1 152048Z 19011KT 15/M01 A3026 RMK A01 T01541009  RH  033%=      5-min Rain = 0
KNH1 152049Z 19013KT 16/M01 A3026 RMK A01 T01551006  RH  033%=      5-min Rain = 0
KNH1 152050Z 20013KT 16/M01 A3026 RMK A01 T01561009  RH  032%=      5-min Rain = 0
KNH1 152051Z 20010KT 16/M01 A3026 RMK A01 T01551009  RH  032%=      5-min Rain = 0
KNH1 152052Z 22010KT 16/M01 A3026 RMK A01 T01561007  RH  033%=      5-min Rain = 0
KNH1 152053Z 21013KT 16/M01 A3026 RMK A01 T01561008  RH  033%=      5-min Rain = 0
KNH1 152054Z 21016KT 16/M01 A3026 RMK A01 T01561011  RH  032%=      5-min Rain = 0
KNH1 152055Z 20013KT 15/M01 A3026 RMK A01 T01541014  RH  032%=      5-min Rain = 0
KNH1 152056Z 19011KT 15/M01 A3026 RMK A01 T01541013  RH  032%=      5-min Rain = 0
KNH1 152057Z 21013KT 15/M01 A3026 RMK A01 T01541011  RH  032%=      5-min Rain = 0
KNH1 152058Z 20014KT 16/M01 A3026 RMK A01 T01561012  RH  032%=      5-min Rain = 0
KNH1 152059Z 21015KT 16/M01 A3026 RMK A01 T01561013  RH  031%=      5-min Rain = 0
KNH1 152100Z 21014KT 16/M01 A3026 RMK A01 T01551012  RH  032%=      5-min Rain = 0
KNH1 152101Z 22013KT 15/M01 A3026 RMK A01 T01531012  RH  032%=      5-min Rain = 0
KNH1 152102Z 21012KT 15/M01 A3026 RMK A01 T01541010  RH  033%=      5-min Rain = 0
KNH1 152103Z 19012KT 16/M01 A3026 RMK A01 T01551007  RH  033%=      5-min Rain = 0
KNH1 152104Z 19010KT 16/M01 A3026 RMK A01 T01551008  RH  033%=      5-min Rain = 0
KNH1 152105Z 19011KT 16/M01 A3026 RMK A01 T01551007  RH  033%=      5-min Rain = 0
KNH1 152106Z 19012KT 16/M01 A3026 RMK A01 T01551007  RH  033%=      5-min Rain = 0
KNH1 152107Z 19012KT 16/M01 A3026 RMK A01 T01551009  RH  032%=      5-min Rain = 0
KNH1 152108Z 19013KT 16/M01 A3026 RMK A01 T01561008  RH  033%=      5-min Rain = 0
KNH1 152109Z 19013KT 16/M01 A3026 RMK A01 T01561009  RH  032%=      5-min Rain = 0
KNH1 152110Z 19010KT 15/M01 A3026 RMK A01 T01541009  RH  033%=      5-min Rain = 0
KNH1 152111Z 18010KT 15/M01 A3026 RMK A01 T01541006  RH  033%=      5-min Rain = 0
KNH1 152112Z 19012KT 16/M01 A3026 RMK A01 T01551005  RH  033%=      5-min Rain = 0
KNH1 152113Z 19012KT 16/M01 A3026 RMK A01 T01551006  RH  033%=      5-min Rain = 0
KNH1 152114Z 19014KT 16/M01 A3026 RMK A01 T01551007  RH  033%=      5-min Rain = 0
KNH1 152115Z 20012KT 16/M01 A3026 RMK A01 T01551008  RH  033%=      5-min Rain = 0
KNH1 152116Z 19010KT 16/M01 A3026 RMK A01 T01551008  RH  033%=      5-min Rain = 0
KNH1 152117Z 19012KT 16/M01 A3026 RMK A01 T01561006  RH  033%=      5-min Rain = 0
KNH1 152118Z 18012KT 16/M01 A3026 RMK A01 T01561007  RH  033%=      5-min Rain = 0
KNH1 152119Z 18015KT 16/M01 A3026 RMK A01 T01561008  RH  033%=      5-min Rain = 0
KNH1 152120Z 19014KT 16/M01 A3026 RMK A01 T01551011  RH  032%=      5-min Rain = 0
KNH1 152121Z 20016KT 16/M01 A3026 RMK A01 T01551010  RH  032%=      5-min Rain = 0
KNH1 152122Z 20014KT 15/M01 A3026 RMK A01 T01541012  RH  032%=      5-min Rain = 0
KNH1 152123Z 20011KT 15/M01 A3026 RMK A01 T01531010  RH  033%=      5-min Rain = 0
KNH1 152124Z 19012G18KT 15/M01 A3025 RMK A01 T01531011  RH  033%=      5-min Rain = 0
KNH1 152125Z 19014KT 15/M01 A3025 RMK A01 T01531009  RH  033%=      5-min Rain = 0
KNH1 152126Z 20013KT 16/M01 A3026 RMK A01 T01551010  RH  032%=      5-min Rain = 0
KNH1 152127Z 21013KT 15/M01 A3025 RMK A01 T01541012  RH  032%=      5-min Rain = 0
KNH1 152128Z 20013KT 15/M01 A3025 RMK A01 T01531011  RH  032%=      5-min Rain = 0
KNH1 152129Z 20014KT 15/M01 A3025 RMK A01 T01541012  RH  032%=      5-min Rain = 0
KNH1 152130Z 18015KT 15/M01 A3025 RMK A01 T01531012  RH  032%=      5-min Rain = 0
KNH1 152131Z 19013KT 15/M01 A3025 RMK A01 T01531011  RH  032%=      5-min Rain = 0
KNH1 152132Z 19013KT 16/M01 A3025 RMK A01 T01551010  RH  032%=      5-min Rain = 0
KNH1 152133Z 19013KT 15/M01 A3025 RMK A01 T01541012  RH  032%=      5-min Rain = 0
KNH1 152134Z 19013KT 16/M01 A3025 RMK A01 T01551010  RH  032%=      5-min Rain = 0
KNH1 152135Z 21013KT 16/M01 A3025 RMK A01 T01561010  RH  032%=      5-min Rain = 0
KNH1 152136Z 20012KT 16/M01 A3025 RMK A01 T01551011  RH  032%=      5-min Rain = 0
KNH1 152137Z 20014KT 16/M01 A3025 RMK A01 T01561010  RH  032%=      5-min Rain = 0
KNH1 152138Z 20013KT 16/M01 A3025 RMK A01 T01561011  RH  032%=      5-min Rain = 0
KNH1 152139Z 20013KT 16/M01 A3025 RMK A01 T01551010  RH  032%=      5-min Rain = 0
KNH1 152140Z 19011KT 16/M01 A3025 RMK A01 T01551011  RH  032%=      5-min Rain = 0
KNH1 152141Z 19014KT 16/M01 A3025 RMK A01 T01551010  RH  032%=      5-min Rain = 0
KNH1 152142Z 19013KT 16/M01 A3025 RMK A01 T01561013  RH  031%=      5-min Rain = 0
KNH1 152143Z 20012KT 15/M01 A3025 RMK A01 T01541014  RH  031%=      5-min Rain = 0
KNH1 152144Z 21013KT 15/M01 A3025 RMK A01 T01541013  RH  032%=      5-min Rain = 0
KNH1 152145Z 21015KT 16/M01 A3025 RMK A01 T01551013  RH  031%=      5-min Rain = 0
KNH1 152146Z 21014KT 16/M01 A3025 RMK A01 T01551014  RH  031%=      5-min Rain = 0
KNH1 152147Z 21013KT 16/M01 A3025 RMK A01 T01551014  RH  031%=      5-min Rain = 0
KNH1 152148Z 20012KT 16/M01 A3025 RMK A01 T01551013  RH  031%=      5-min Rain = 0
KNH1 152149Z 21011KT 16/M01 A3025 RMK A01 T01571012  RH  031%=      5-min Rain = 0
KNH1 152150Z 20012KT 16/M01 A3024 RMK A01 T01571013  RH  031%=      5-min Rain = 0
KNH1 152151Z 18012KT 16/M01 A3024 RMK A01 T01571012  RH  031%=      5-min Rain = 0
KNH1 152152Z 19012KT 16/M01 A3024 RMK A01 T01561012  RH  032%=      5-min Rain = 0
KNH1 152153Z 19011KT 16/M01 A3024 RMK A01 T01551013  RH  031%=      5-min Rain = 0
KNH1 152154Z 18011KT 16/M01 A3024 RMK A01 T01551011  RH  032%=      5-min Rain = 0
KNH1 152155Z 19014KT 16/M01 A3024 RMK A01 T01561010  RH  032%=      5-min Rain = 0
KNH1 152156Z 20014KT 16/M01 A3024 RMK A01 T01561011  RH  032%=      5-min Rain = 0
KNH1 152157Z 20012KT 16/M01 A3024 RMK A01 T01551014  RH  031%=      5-min Rain = 0
KNH1 152158Z 20008KT 16/M01 A3024 RMK A01 T01551011  RH  032%=      5-min Rain = 0
KNH1 152159Z 19009KT 16/M01 A3024 RMK A01 T01571009  RH  032%=      5-min Rain = 0
KNH1 152200Z 18012KT 16/M01 A3024 RMK A01 T01581010  RH  032%=      5-min Rain = 0
KNH1 152201Z 20012KT 16/M01 A3024 RMK A01 T01561011  RH  032%=      5-min Rain = 0
KNH1 152202Z 19010KT 16/M01 A3024 RMK A01 T01551009  RH  033%=      5-min Rain = 0
KNH1 152203Z 19014KT 16/M01 A3024 RMK A01 T01551008  RH  033%=      5-min Rain = 0
KNH1 152204Z 19015KT 16/M01 A3024 RMK A01 T01561010  RH  032%=      5-min Rain = 0
KNH1 152205Z 19011KT 15/M01 A3024 RMK A01 T01541010  RH  032%=      5-min Rain = 0
KNH1 152206Z 19011KT 15/M01 A3024 RMK A01 T01541008  RH  033%=      5-min Rain = 0
KNH1 152207Z 19012KT 16/M01 A3024 RMK A01 T01551007  RH  033%=      5-min Rain = 0
KNH1 152208Z 19013KT 16/M01 A3024 RMK A01 T01551010  RH  032%=      5-min Rain = 0
KNH1 152209Z 19012KT 16/M01 A3024 RMK A01 T01551009  RH  032%=      5-min Rain = 0
KNH1 152210Z 19013KT 16/M01 A3024 RMK A01 T01551009  RH  032%=      5-min Rain = 0
KNH1 152211Z 20014KT 15/M01 A3024 RMK A01 T01541010  RH  032%=      5-min Rain = 0
KNH1 152212Z 19012KT 15/M01 A3024 RMK A01 T01531011  RH  032%=      5-min Rain = 0
KNH1 152213Z 18011KT 15/M01 A3024 RMK A01 T01531011  RH  033%=      5-min Rain = 0
KNH1 152214Z 19010KT 15/M01 A3024 RMK A01 T01531010  RH  033%=      5-min Rain = 0
KNH1 152215Z 19012KT 15/M01 A3024 RMK A01 T01531007  RH  033%=      5-min Rain = 0
KNH1 152216Z 18013KT 15/M01 A3023 RMK A01 T01541008  RH  033%=      5-min Rain = 0
KNH1 152217Z 20012KT 15/M01 A3023 RMK A01 T01531008  RH  033%=      5-min Rain = 0
KNH1 152218Z 19014KT 15/M01 A3023 RMK A01 T01531009  RH  033%=      5-min Rain = 0
KNH1 152219Z 19012KT 15/M01 A3023 RMK A01 T01531008  RH  033%=      5-min Rain = 0
KNH1 152220Z 19012KT 15/M01 A3023 RMK A01 T01531007  RH  033%=      5-min Rain = 0
KNH1 152221Z 18013KT 15/M01 A3023 RMK A01 T01531007  RH  033%=      5-min Rain = 0
KNH1 152222Z 19015KT 15/M01 A3023 RMK A01 T01521008  RH  033%=      5-min Rain = 0
KNH1 152223Z 19012KT 15/M01 A3023 RMK A01 T01521009  RH  033%=      5-min Rain = 0
KNH1 152224Z 20013KT 15/M01 A3023 RMK A01 T01521011  RH  033%=      5-min Rain = 0
KNH1 152225Z 20012KT 15/M01 A3023 RMK A01 T01521011  RH  033%=      5-min Rain = 0
KNH1 152226Z 19013KT 15/M01 A3023 RMK A01 T01531010  RH  033%=      5-min Rain = 0
KNH1 152227Z 19013KT 15/M01 A3023 RMK A01 T01521009  RH  033%=      5-min Rain = 0
KNH1 152228Z 19012KT 15/M01 A3023 RMK A01 T01521009  RH  033%=      5-min Rain = 0
KNH1 152229Z 19012KT 15/M01 A3023 RMK A01 T01511008  RH  034%=      5-min Rain = 0
KNH1 152230Z 17011KT 15/M01 A3023 RMK A01 T01511006  RH  034%=      5-min Rain = 0
KNH1 152231Z 18013KT 15/M01 A3023 RMK A01 T01501007  RH  034%=      5-min Rain = 0
KNH1 152232Z 19012KT 15/M01 A3023 RMK A01 T01501006  RH  034%=      5-min Rain = 0
KNH1 152233Z 19011KT 15/M01 A3023 RMK A01 T01501006  RH  034%=      5-min Rain = 0
KNH1 152234Z 19012KT 15/M01 A3023 RMK A01 T01501007  RH  034%=      5-min Rain = 0
KNH1 152235Z 19011KT 15/M01 A3023 RMK A01 T01501008  RH  034%=      5-min Rain = 0
KNH1 152236Z 19012KT 15/M01 A3023 RMK A01 T01501007  RH  034%=      5-min Rain = 0
KNH1 152237Z 19010KT 15/M01 A3023 RMK A01 T01501007  RH  034%=      5-min Rain = 0
KNH1 152238Z 19011KT 15/M01 A3023 RMK A01 T01501007  RH  034%=      5-min Rain = 0
KNH1 152239Z 18013KT 15/M01 A3023 RMK A01 T01501007  RH  034%=      5-min Rain = 0
KNH1 152240Z 19011KT 15/M01 A3023 RMK A01 T01501007  RH  034%=      5-min Rain = 0
KNH1 152241Z 19009KT 15/M01 A3023 RMK A01 T01491006  RH  034%=      5-min Rain = 0
KNH1 152242Z 19010KT 15/M01 A3023 RMK A01 T01491006  RH  034%=      5-min Rain = 0
KNH1 152243Z 19011KT 15/M01 A3023 RMK A01 T01501007  RH  034%=      5-min Rain = 0
KNH1 152244Z 19012KT 15/M01 A3023 RMK A01 T01491008  RH  034%=      5-min Rain = 0
KNH1 152245Z 19012KT 15/M01 A3023 RMK A01 T01491008  RH  034%=      5-min Rain = 0
KNH1 152246Z 18010KT 15/M01 A3023 RMK A01 T01491007  RH  034%=      5-min Rain = 0
KNH1 152247Z 18008KT 15/M01 A3023 RMK A01 T01481005  RH  035%=      5-min Rain = 0
KNH1 152248Z 19009KT 15/M01 A3023 RMK A01 T01481005  RH  035%=      5-min Rain = 0
KNH1 152249Z 19011KT 15/M01 A3023 RMK A01 T01481006  RH  035%=      5-min Rain = 0
KNH1 152250Z 19012KT 15/M01 A3023 RMK A01 T01481008  RH  034%=      5-min Rain = 0
KNH1 152251Z 19013KT 15/M01 A3023 RMK A01 T01471009  RH  034%=      5-min Rain = 0
KNH1 152252Z 19012KT 15/M01 A3023 RMK A01 T01471009  RH  034%=      5-min Rain = 0
KNH1 152253Z 19012KT 15/M01 A3023 RMK A01 T01471009  RH  034%=      5-min Rain = 0
KNH1 152254Z 19010KT 15/M01 A3023 RMK A01 T01471008  RH  034%=      5-min Rain = 0
KNH1 152255Z 19011KT 15/M01 A3023 RMK A01 T01471008  RH  035%=      5-min Rain = 0
KNH1 152256Z 19009KT 15/M01 A3023 RMK A01 T01461008  RH  035%=      5-min Rain = 0
KNH1 152257Z 19012KT 15/M01 A3023 RMK A01 T01461008  RH  035%=      5-min Rain = 0
KNH1 152258Z 19012KT 15/M01 A3023 RMK A01 T01461009  RH  034%=      5-min Rain = 0
KNH1 152259Z 19012KT 15/M01 A3023 RMK A01 T01461010  RH  034%=      5-min Rain = 0
KNH1 152300Z 19012KT 15/M01 A3023 RMK A01 T01451010  RH  034%=      5-min Rain = 0
KNH1 152301Z 19011KT 15/M01 A3023 RMK A01 T01451009  RH  035%=      5-min Rain = 0
KNH1 152302Z 19011KT 14/M01 A3023 RMK A01 T01441011  RH  034%=      5-min Rain = 0
KNH1 152303Z 19010KT 14/M01 A3023 RMK A01 T01441010  RH  035%=      5-min Rain = 0
KNH1 152304Z 19011KT 14/M01 A3023 RMK A01 T01431010  RH  035%=      5-min Rain = 0
KNH1 152305Z 19011KT 14/M01 A3023 RMK A01 T01441010  RH  035%=      5-min Rain = 0
KNH1 152306Z 19011KT 14/M01 A3023 RMK A01 T01431011  RH  035%=      5-min Rain = 0
KNH1 152307Z 19009KT 14/M01 A3023 RMK A01 T01431010  RH  035%=      5-min Rain = 0
KNH1 152308Z 18009KT 14/M01 A3023 RMK A01 T01431010  RH  035%=      5-min Rain = 0
KNH1 152309Z 18011KT 14/M01 A3023 RMK A01 T01421009  RH  035%=      5-min Rain = 0
KNH1 152310Z 19011KT 14/M01 A3023 RMK A01 T01421010  RH  035%=      5-min Rain = 0
KNH1 152311Z 18010KT 14/M01 A3023 RMK A01 T01411010  RH  035%=      5-min Rain = 0
KNH1 152312Z 18009KT 14/M01 A3023 RMK A01 T01411010  RH  035%=      5-min Rain = 0
KNH1 152313Z 19009KT 14/M01 A3023 RMK A01 T01401009  RH  036%=      5-min Rain = 0
KNH1 152314Z 19009KT 14/M01 A3023 RMK A01 T01401008  RH  036%=      5-min Rain = 0
KNH1 152315Z 19011KT 14/M01 A3023 RMK A01 T01401008  RH  036%=      5-min Rain = 0
KNH1 152316Z 19012KT 14/M01 A3023 RMK A01 T01391010  RH  036%=      5-min Rain = 0
KNH1 152317Z 19011KT 14/M01 A3023 RMK A01 T01391011  RH  035%=      5-min Rain = 0
KNH1 152318Z 19010KT 14/M01 A3023 RMK A01 T01391011  RH  036%=      5-min Rain = 0
KNH1 152319Z 19011KT 14/M01 A3023 RMK A01 T01381010  RH  036%=      5-min Rain = 0
KNH1 152320Z 18010KT 14/M01 A3023 RMK A01 T01381010  RH  036%=      5-min Rain = 0
KNH1 152321Z 18010KT 14/M01 A3023 RMK A01 T01371010  RH  036%=      5-min Rain = 0
KNH1 152322Z 18010KT 14/M01 A3023 RMK A01 T01361009  RH  037%=      5-min Rain = 0
KNH1 152323Z 18010KT 14/M01 A3023 RMK A01 T01351009  RH  037%=      5-min Rain = 0
KNH1 152324Z 18009KT 13/M01 A3023 RMK A01 T01341009  RH  037%=      5-min Rain = 0
KNH1 152325Z 18010KT 13/M01 A3023 RMK A01 T01341009  RH  037%=      5-min Rain = 0
KNH1 152326Z 18009KT 13/M01 A3023 RMK A01 T01341009  RH  037%=      5-min Rain = 0
KNH1 152327Z 18008KT 13/M01 A3023 RMK A01 T01341008  RH  038%=      5-min Rain = 0
KNH1 152328Z 18009KT 13/M01 A3023 RMK A01 T01321008  RH  038%=      5-min Rain = 0
KNH1 152329Z 19009KT 13/M01 A3023 RMK A01 T01321007  RH  038%=      5-min Rain = 0
KNH1 152330Z 18008KT 13/M01 A3023 RMK A01 T01311007  RH  039%=      5-min Rain = 0
KNH1 152331Z 18008KT 13/M01 A3023 RMK A01 T01301007  RH  039%=      5-min Rain = 0
KNH1 152332Z 18008KT 13/M01 A3023 RMK A01 T01301006  RH  039%=      5-min Rain = 0
KNH1 152333Z 18008KT 13/M01 A3023 RMK A01 T01281005  RH  040%=      5-min Rain = 0
KNH1 152334Z 18009KT 13/M01 A3023 RMK A01 T01271006  RH  040%=      5-min Rain = 0
KNH1 152335Z 18009KT 13/M01 A3023 RMK A01 T01271006  RH  040%=      5-min Rain = 0
KNH1 152336Z 18008KT 13/M01 A3023 RMK A01 T01261006  RH  040%=      5-min Rain = 0
KNH1 152337Z 18008KT 13/M01 A3023 RMK A01 T01251006  RH  040%=      5-min Rain = 0
KNH1 152338Z 18008KT 12/M01 A3023 RMK A01 T01241006  RH  040%=      5-min Rain = 0
KNH1 152339Z 18008KT 12/M01 A3023 RMK A01 T01241006  RH  041%=      5-min Rain = 0
KNH1 152340Z 18007KT 12/M01 A3023 RMK A01 T01231006  RH  041%=      5-min Rain = 0
KNH1 152341Z 18006KT 12/M01 A3023 RMK A01 T01221005  RH  041%=      5-min Rain = 0
KNH1 152342Z 18007KT 12/M01 A3023 RMK A01 T01221005  RH  041%=      5-min Rain = 0
KNH1 152343Z 18007KT 12/M01 A3023 RMK A01 T01221005  RH  041%=      5-min Rain = 0
KNH1 152344Z 18007KT 12/M00 A3023 RMK A01 T01221004  RH  042%=      5-min Rain = 0
KNH1 152345Z 18007KT 12/M00 A3023 RMK A01 T01211004  RH  042%=      5-min Rain = 0
KNH1 152346Z 18007KT 12/M01 A3023 RMK A01 T01201005  RH  042%=      5-min Rain = 0
KNH1 152347Z 18008KT 12/M00 A3023 RMK A01 T01201004  RH  042%=      5-min Rain = 0
KNH1 152348Z 18007KT 12/M00 A3023 RMK A01 T01201004  RH  042%=      5-min Rain = 0
KNH1 152349Z 18007KT 12/M00 A3023 RMK A01 T01201004  RH  042%=      5-min Rain = 0
KNH1 152350Z 17006KT 12/M00 A3023 RMK A01 T01191004  RH  043%=      5-min Rain = 0
KNH1 152351Z 18007KT 12/M00 A3023 RMK A01 T01191004  RH  043%=      5-min Rain = 0
KNH1 152352Z 18007KT 12/M00 A3023 RMK A01 T01191004  RH  043%=      5-min Rain = 0
KNH1 152353Z 18006KT 12/M00 A3023 RMK A01 T01181003  RH  043%=      5-min Rain = 0
KNH1 152354Z 18007KT 12/M00 A3023 RMK A01 T01171003  RH  044%=      5-min Rain = 0
KNH1 152355Z 18006KT 12/M00 A3023 RMK A01 T01161003  RH  044%=      5-min Rain = 0
KNH1 152356Z 18007KT 12/M00 A3023 RMK A01 T01161002  RH  044%=      5-min Rain = 0
KNH1 152357Z 18006KT 12/M00 A3023 RMK A01 T01151002  RH  044%=      5-min Rain = 0
KNH1 152358Z 18007KT 12/M00 A3023 RMK A01 T01151002  RH  045%=      5-min Rain = 0
KNH1 152359Z 18006KT 11/M00 A3023 RMK A01 T01141002  RH  045%=      5-min Rain = 0
KNH1 160000Z 18006KT 11/M00 A3023 RMK A01 T01141002  RH  045%=      5-min Rain = 0
KNH1 160001Z 18005KT 11/M00 A3023 RMK A01 T01131002  RH  045%=      5-min Rain = 0
KNH1 160002Z 18006KT 11/M00 A3023 RMK A01 T01131001  RH  045%=      5-min Rain = 0
KNH1 160003Z 18006KT 11/M00 A3023 RMK A01 T01121001  RH  046%=      5-min Rain = 0
KNH1 160004Z 18006KT 11/M00 A3023 RMK A01 T01111001  RH  046%=      5-min Rain = 0
KNH1 160005Z 18007KT 11/M00 A3023 RMK A01 T01111001  RH  046%=      5-min Rain = 0
KNH1 160006Z 17007KT 11/M00 A3023 RMK A01 T01111001  RH  046%=      5-min Rain = 0
KNH1 160007Z 18006KT 11/M00 A3023 RMK A01 T01111001  RH  046%=      5-min Rain = 0
KNH1 160008Z 17006KT 11/M00 A3023 RMK A01 T01091001  RH  047%=      5-min Rain = 0
KNH1 160009Z 17005KT 11/M00 A3023 RMK A01 T01081001  RH  047%=      5-min Rain = 0
KNH1 160010Z 17006KT 11/M00 A3023 RMK A01 T01081001  RH  047%=      5-min Rain = 0
KNH1 160011Z 17006KT 11/M00 A3023 RMK A01 T01071001  RH  047%=      5-min Rain = 0
KNH1 160012Z 16006KT 11/M00 A3023 RMK A01 T01061001  RH  047%=      5-min Rain = 0
KNH1 160013Z 17005KT 11/M00 A3023 RMK A01 T01061001  RH  048%=      5-min Rain = 0
KNH1 160014Z 17006KT 11/M00 A3023 RMK A01 T01061001  RH  048%=      5-min Rain = 0
KNH1 160015Z 17006KT 11/00 A3023 RMK A01 T010500-0  RH  048%=      5-min Rain = 0
KNH1 160016Z 16006KT 10/00 A3023 RMK A01 T01040000  RH  048%=      5-min Rain = 0
KNH1 160017Z 16006KT 10/00 A3023 RMK A01 T010300-0  RH  049%=      5-min Rain = 0
KNH1 160018Z 16006KT 10/00 A3023 RMK A01 T01030000  RH  049%=      5-min Rain = 0
KNH1 160019Z 16006KT 10/00 A3023 RMK A01 T01020000  RH  049%=      5-min Rain = 0
KNH1 160020Z 17006KT 10/00 A3023 RMK A01 T01010001  RH  050%=      5-min Rain = 0
KNH1 160021Z 16006KT 10/00 A3023 RMK A01 T01000000  RH  050%=      5-min Rain = 0
KNH1 160022Z 17006KT 10/00 A3023 RMK A01 T01000000  RH  050%=      5-min Rain = 0
KNH1 160023Z 17006KT 10/00 A3023 RMK A01 T00990001  RH  050%=      5-min Rain = 0
KNH1 160024Z 17007KT 10/00 A3023 RMK A01 T00980001  RH  051%=      5-min Rain = 0
KNH1 160025Z 17007KT 10/00 A3023 RMK A01 T00970001  RH  051%=      5-min Rain = 0
KNH1 160026Z 17007KT 10/00 A3023 RMK A01 T00970001  RH  051%=      5-min Rain = 0
KNH1 160027Z 17007KT 10/00 A3023 RMK A01 T00960001  RH  051%=      5-min Rain = 0
KNH1 160028Z 17006KT 10/00 A3023 RMK A01 T00960001  RH  052%=      5-min Rain = 0
KNH1 160029Z 17006KT 10/00 A3023 RMK A01 T00960002  RH  052%=      5-min Rain = 0
KNH1 160030Z 17006KT 10/00 A3023 RMK A01 T00960002  RH  052%=      5-min Rain = 0
KNH1 160031Z 17007KT 10/00 A3023 RMK A01 T00960002  RH  052%=      5-min Rain = 0
KNH1 160032Z 17007KT 10/00 A3023 RMK A01 T00970002  RH  052%=      5-min Rain = 0
KNH1 160033Z 17007KT 10/00 A3023 RMK A01 T00960003  RH  052%=      5-min Rain = 0
KNH1 160034Z 17006KT 10/00 A3023 RMK A01 T00960003  RH  052%=      5-min Rain = 0
KNH1 160035Z 17006KT 10/00 A3023 RMK A01 T00960003  RH  052%=      5-min Rain = 0
KNH1 160036Z 17007KT 10/00 A3023 RMK A01 T00970003  RH  052%=      5-min Rain = 0
KNH1 160037Z 17006KT 10/00 A3023 RMK A01 T00960003  RH  052%=      5-min Rain = 0
KNH1 160038Z 17007KT 10/00 A3023 RMK A01 T00960003  RH  052%=      5-min Rain = 0
KNH1 160039Z 17007KT 10/00 A3023 RMK A01 T00960003  RH  052%=      5-min Rain = 0
KNH1 160040Z 17007KT 10/00 A3023 RMK A01 T00960003  RH  052%=      5-min Rain = 0
KNH1 160041Z 17006KT 10/00 A3023 RMK A01 T00960003  RH  052%=      5-min Rain = 0
KNH1 160042Z 17007KT 10/00 A3023 RMK A01 T00960003  RH  052%=      5-min Rain = 0
KNH1 160043Z 17007KT 10/00 A3023 RMK A01 T00960003  RH  052%=      5-min Rain = 0
KNH1 160044Z 17007KT 10/00 A3023 RMK A01 T00960003  RH  052%=      5-min Rain = 0
KNH1 160045Z 17007KT 10/00 A3023 RMK A01 T00950002  RH  052%=      5-min Rain = 0
KNH1 160046Z 17007KT 10/00 A3023 RMK A01 T00950002  RH  052%=      5-min Rain = 0
KNH1 160047Z 17007KT 10/00 A3023 RMK A01 T00950002  RH  052%=      5-min Rain = 0
KNH1 160048Z 17006KT 10/00 A3023 RMK A01 T00950003  RH  052%=      5-min Rain = 0
KNH1 160049Z 17006KT 10/00 A3023 RMK A01 T00950001  RH  052%=      5-min Rain = 0
KNH1 160050Z 17006KT 09/00 A3023 RMK A01 T00940003  RH  053%=      5-min Rain = 0
KNH1 160051Z 17006KT 09/00 A3023 RMK A01 T00940003  RH  053%=      5-min Rain = 0
KNH1 160052Z 17007KT 09/00 A3023 RMK A01 T00930003  RH  053%=      5-min Rain = 0
KNH1 160053Z 17007KT 09/00 A3023 RMK A01 T00930003  RH  053%=      5-min Rain = 0
KNH1 160054Z 17006KT 09/00 A3023 RMK A01 T00930003  RH  053%=      5-min Rain = 0
KNH1 160055Z 17006KT 09/00 A3023 RMK A01 T00920003  RH  054%=      5-min Rain = 0
KNH1 160056Z 17006KT 09/00 A3023 RMK A01 T00920002  RH  054%=      5-min Rain = 0
KNH1 160057Z 17006KT 09/00 A3023 RMK A01 T00910002  RH  054%=      5-min Rain = 0
KNH1 160058Z 17006KT 09/00 A3023 RMK A01 T00910002  RH  054%=      5-min Rain = 0
KNH1 160059Z 17006KT 09/00 A3023 RMK A01 T00910002  RH  054%=      5-min Rain = 0
KNH1 160100Z 17007KT 09/00 A3023 RMK A01 T00910002  RH  054%=      5-min Rain = 0
KNH1 160101Z 17008KT 09/00 A3023 RMK A01 T00900003  RH  054%=      5-min Rain = 0
KNH1 160102Z 17007KT 09/00 A3023 RMK A01 T00900002  RH  054%=      5-min Rain = 0
KNH1 160103Z 18007KT 09/00 A3023 RMK A01 T00900003  RH  054%=      5-min Rain = 0
KNH1 160104Z 18007KT 09/00 A3023 RMK A01 T00900002  RH  054%=      5-min Rain = 0
KNH1 160105Z 18007KT 09/00 A3023 RMK A01 T00890003  RH  055%=      5-min Rain = 0
KNH1 160106Z 17006KT 09/00 A3023 RMK A01 T00880003  RH  055%=      5-min Rain = 0
KNH1 160107Z 18007KT 09/00 A3023 RMK A01 T00880002  RH  055%=      5-min Rain = 0
KNH1 160108Z 17007KT 09/00 A3023 RMK A01 T00870002  RH  055%=      5-min Rain = 0
KNH1 160109Z 17007KT 09/00 A3023 RMK A01 T00870002  RH  055%=      5-min Rain = 0
KNH1 160110Z 17006KT 09/00 A3023 RMK A01 T00860003  RH  056%=      5-min Rain = 0
KNH1 160111Z 18006KT 09/00 A3023 RMK A01 T00850003  RH  056%=      5-min Rain = 0
KNH1 160112Z 17007KT 09/00 A3023 RMK A01 T00850003  RH  056%=      5-min Rain = 0
KNH1 160113Z 17006KT 09/00 A3023 RMK A01 T00850003  RH  056%=      5-min Rain = 0
KNH1 160114Z 17006KT 08/00 A3023 RMK A01 T00840003  RH  056%=      5-min Rain = 0
KNH1 160115Z 17006KT 08/00 A3023 RMK A01 T00840003  RH  057%=      5-min Rain = 0
KNH1 160116Z 17006KT 08/00 A3023 RMK A01 T00840003  RH  057%=      5-min Rain = 0
KNH1 160117Z 18006KT 08/00 A3023 RMK A01 T00830003  RH  057%=      5-min Rain = 0
KNH1 160118Z 17006KT 08/00 A3023 RMK A01 T00830003  RH  057%=      5-min Rain = 0
KNH1 160119Z 17006KT 08/00 A3023 RMK A01 T00830003  RH  057%=      5-min Rain = 0
KNH1 160120Z 17005KT 08/00 A3023 RMK A01 T00820003  RH  057%=      5-min Rain = 0
KNH1 160121Z 17006KT 08/00 A3023 RMK A01 T00820003  RH  057%=      5-min Rain = 0
KNH1 160122Z 17006KT 08/00 A3023 RMK A01 T00820002  RH  057%=      5-min Rain = 0
KNH1 160123Z 17006KT 08/00 A3023 RMK A01 T00820002  RH  057%=      5-min Rain = 0
KNH1 160124Z 17005KT 08/00 A3023 RMK A01 T00820002  RH  057%=      5-min Rain = 0
KNH1 160125Z 17006KT 08/00 A3023 RMK A01 T00830002  RH  057%=      5-min Rain = 0
KNH1 160126Z 17006KT 08/00 A3023 RMK A01 T00830002  RH  057%=      5-min Rain = 0
KNH1 160127Z 17005KT 08/00 A3023 RMK A01 T00820002  RH  057%=      5-min Rain = 0
KNH1 160128Z 17006KT 08/00 A3023 RMK A01 T00820002  RH  057%=      5-min Rain = 0
KNH1 160129Z 17006KT 08/00 A3023 RMK A01 T00820002  RH  057%=      5-min Rain = 0
KNH1 160130Z 17005KT 08/00 A3023 RMK A01 T00820002  RH  057%=      5-min Rain = 0
KNH1 160131Z 17006KT 08/00 A3023 RMK A01 T00810002  RH  057%=      5-min Rain = 0
KNH1 160132Z 17006KT 08/00 A3023 RMK A01 T00810002  RH  057%=      5-min Rain = 0
KNH1 160133Z 17005KT 08/00 A3023 RMK A01 T00810002  RH  057%=      5-min Rain = 0
KNH1 160134Z 17006KT 08/00 A3023 RMK A01 T00810002  RH  057%=      5-min Rain = 0
KNH1 160135Z 17005KT 08/00 A3023 RMK A01 T00810002  RH  058%=      5-min Rain = 0
KNH1 160136Z 17005KT 08/00 A3023 RMK A01 T00810002  RH  058%=      5-min Rain = 0
KNH1 160137Z 17006KT 08/00 A3023 RMK A01 T00800002  RH  058%=      5-min Rain = 0
KNH1 160138Z 17006KT 08/00 A3023 RMK A01 T00800001  RH  057%=      5-min Rain = 0
KNH1 160139Z 17007KT 08/00 A3023 RMK A01 T00800001  RH  057%=      5-min Rain = 0
KNH1 160140Z 17006KT 08/00 A3023 RMK A01 T00800001  RH  057%=      5-min Rain = 0
KNH1 160141Z 17006KT 08/00 A3023 RMK A01 T00800001  RH  057%=      5-min Rain = 0
KNH1 160142Z 18007KT 08/00 A3023 RMK A01 T00800001  RH  057%=      5-min Rain = 0
KNH1 160143Z 18007KT 08/00 A3023 RMK A01 T00800001  RH  057%=      5-min Rain = 0
KNH1 160144Z 17007KT 08/00 A3023 RMK A01 T00800001  RH  057%=      5-min Rain = 0
KNH1 160145Z 17007KT 08/00 A3023 RMK A01 T00810001  RH  057%=      5-min Rain = 0
KNH1 160146Z 17007KT 08/00 A3023 RMK A01 T00800001  RH  057%=      5-min Rain = 0
KNH1 160147Z 18007KT 08/00 A3023 RMK A01 T00800001  RH  057%=      5-min Rain = 0
KNH1 160148Z 18007KT 08/00 A3023 RMK A01 T00800001  RH  057%=      5-min Rain = 0
KNH1 160149Z 18008KT 08/00 A3023 RMK A01 T00800002  RH  058%=      5-min Rain = 0
KNH1 160150Z 18007KT 08/00 A3023 RMK A01 T00800001  RH  058%=      5-min Rain = 0
KNH1 160151Z 18007KT 08/00 A3023 RMK A01 T00790001  RH  058%=      5-min Rain = 0
KNH1 160152Z 18007KT 08/00 A3023 RMK A01 T00790001  RH  058%=      5-min Rain = 0
KNH1 160153Z 18006KT 08/00 A3023 RMK A01 T00780002  RH  058%=      5-min Rain = 0
KNH1 160154Z 18006KT 08/00 A3023 RMK A01 T00780002  RH  058%=      5-min Rain = 0
KNH1 160155Z 18006KT 08/00 A3023 RMK A01 T00780002  RH  058%=      5-min Rain = 0
KNH1 160156Z 18007KT 08/00 A3023 RMK A01 T00780001  RH  058%=      5-min Rain = 0
KNH1 160157Z 18007KT 08/00 A3023 RMK A01 T00790001  RH  058%=      5-min Rain = 0
KNH1 160158Z 18006KT 08/00 A3023 RMK A01 T00790001  RH  058%=      5-min Rain = 0
KNH1 160159Z 18007KT 08/00 A3023 RMK A01 T00790001  RH  058%=      5-min Rain = 0
KNH1 160200Z 18007KT 08/00 A3023 RMK A01 T00790001  RH  058%=      5-min Rain = 0
KNH1 160201Z 18007KT 08/00 A3023 RMK A01 T00790002  RH  058%=      5-min Rain = 0
KNH1 160202Z 18007KT 08/00 A3023 RMK A01 T00780001  RH  058%=      5-min Rain = 0
KNH1 160203Z 18007KT 08/00 A3023 RMK A01 T00790002  RH  058%=      5-min Rain = 0
KNH1 160204Z 18007KT 08/00 A3023 RMK A01 T00780002  RH  058%=      5-min Rain = 0
KNH1 160205Z 18007KT 08/00 A3023 RMK A01 T00780002  RH  058%=      5-min Rain = 0
KNH1 160206Z 18007KT 08/00 A3023 RMK A01 T00780002  RH  059%=      5-min Rain = 0
KNH1 160207Z 18008KT 08/00 A3023 RMK A01 T00780002  RH  059%=      5-min Rain = 0
KNH1 160208Z 18008KT 08/00 A3023 RMK A01 T00780002  RH  059%=      5-min Rain = 0
KNH1 160209Z 18008KT 08/00 A3023 RMK A01 T00780002  RH  059%=      5-min Rain = 0
KNH1 160210Z 18008KT 08/00 A3023 RMK A01 T00780002  RH  059%=      5-min Rain = 0
KNH1 160211Z 18008KT 08/00 A3023 RMK A01 T00780002  RH  059%=      5-min Rain = 0
KNH1 160212Z 18008KT 08/00 A3023 RMK A01 T00770002  RH  059%=      5-min Rain = 0
KNH1 160213Z 18008KT 08/00 A3023 RMK A01 T00770001  RH  059%=      5-min Rain = 0
KNH1 160214Z 18008KT 08/00 A3023 RMK A01 T00770001  RH  059%=      5-min Rain = 0
KNH1 160215Z 18007KT 08/00 A3023 RMK A01 T00770001  RH  059%=      5-min Rain = 0
KNH1 160216Z 18007KT 08/00 A3023 RMK A01 T00770001  RH  059%=      5-min Rain = 0
KNH1 160217Z 18007KT 08/00 A3023 RMK A01 T00770001  RH  059%=      5-min Rain = 0
KNH1 160218Z 18007KT 08/00 A3023 RMK A01 T00770001  RH  059%=      5-min Rain = 0
KNH1 160219Z 18006KT 08/00 A3023 RMK A01 T00770001  RH  059%=      5-min Rain = 0
KNH1 160220Z 18007KT 08/00 A3023 RMK A01 T00770001  RH  059%=      5-min Rain = 0
KNH1 160221Z 18007KT 08/00 A3023 RMK A01 T00760001  RH  059%=      5-min Rain = 0
KNH1 160222Z 18008KT 08/00 A3023 RMK A01 T00760001  RH  059%=      5-min Rain = 0
KNH1 160223Z 18007KT 08/00 A3023 RMK A01 T00760001  RH  059%=      5-min Rain = 0
KNH1 160224Z 18008KT 08/00 A3023 RMK A01 T00760001  RH  059%=      5-min Rain = 0
KNH1 160225Z 18009KT 08/00 A3023 RMK A01 T00760001  RH  059%=      5-min Rain = 0
KNH1 160226Z 18007KT 08/00 A3023 RMK A01 T00760001  RH  059%=      5-min Rain = 0
KNH1 160227Z 18008KT 08/00 A3023 RMK A01 T00760000  RH  059%=      5-min Rain = 0
KNH1 160228Z 18008KT 08/00 A3023 RMK A01 T00750001  RH  059%=      5-min Rain = 0
KNH1 160229Z 18009KT 08/00 A3023 RMK A01 T00750000  RH  059%=      5-min Rain = 0
KNH1 160230Z 18008KT 08/00 A3023 RMK A01 T00750000  RH  059%=      5-min Rain = 0
KNH1 160231Z 19009KT 07/00 A3023 RMK A01 T00740000  RH  059%=      5-min Rain = 0
KNH1 160232Z 18008KT 07/00 A3023 RMK A01 T00740000  RH  059%=      5-min Rain = 0
KNH1 160233Z 18009KT 07/00 A3023 RMK A01 T00740000  RH  059%=      5-min Rain = 0
KNH1 160234Z 18008KT 07/00 A3023 RMK A01 T00740001  RH  060%=      5-min Rain = 0
KNH1 160235Z 19008KT 07/00 A3023 RMK A01 T00730001  RH  060%=      5-min Rain = 0
KNH1 160236Z 18008KT 07/00 A3023 RMK A01 T00730001  RH  060%=      5-min Rain = 0
KNH1 160237Z 19008KT 07/00 A3023 RMK A01 T00730000  RH  060%=      5-min Rain = 0
KNH1 160238Z 18009KT 07/00 A3023 RMK A01 T00730000  RH  060%=      5-min Rain = 0
KNH1 160239Z 19008KT 07/00 A3023 RMK A01 T00730000  RH  060%=      5-min Rain = 0
KNH1 160240Z 19009KT 07/00 A3023 RMK A01 T00730000  RH  060%=      5-min Rain = 0
KNH1 160241Z 19008KT 07/00 A3022 RMK A01 T00730000  RH  060%=      5-min Rain = 0
KNH1 160242Z 19009KT 07/00 A3022 RMK A01 T007200-0  RH  060%=      5-min Rain = 0
KNH1 160243Z 18009KT 07/M00 A3022 RMK A01 T00721001  RH  060%=      5-min Rain = 0
KNH1 160244Z 19009KT 07/M00 A3022 RMK A01 T00731001  RH  060%=      5-min Rain = 0
KNH1 160245Z 18009KT 07/M00 A3022 RMK A01 T00731001  RH  059%=      5-min Rain = 0
KNH1 160246Z 18009KT 07/M00 A3022 RMK A01 T00731001  RH  059%=      5-min Rain = 0
KNH1 160247Z 19009KT 07/M00 A3022 RMK A01 T00731001  RH  059%=      5-min Rain = 0
KNH1 160248Z 18009KT 07/M00 A3022 RMK A01 T00731001  RH  059%=      5-min Rain = 0
KNH1 160249Z 18009KT 07/M00 A3022 RMK A01 T00731001  RH  059%=      5-min Rain = 0
KNH1 160250Z 18009KT 07/M00 A3022 RMK A01 T00731001  RH  059%=      5-min Rain = 0
KNH1 160251Z 18009KT 07/M00 A3022 RMK A01 T00741001  RH  059%=      5-min Rain = 0
KNH1 160252Z 18009KT 07/M00 A3022 RMK A01 T00741002  RH  059%=      5-min Rain = 0
KNH1 160253Z 18009KT 07/M00 A3022 RMK A01 T00741002  RH  058%=      5-min Rain = 0
KNH1 160254Z 18009KT 07/M00 A3022 RMK A01 T00741002  RH  058%=      5-min Rain = 0
KNH1 160255Z 19009KT 07/M00 A3022 RMK A01 T00741002  RH  059%=      5-min Rain = 0
KNH1 160256Z 18009KT 07/M00 A3022 RMK A01 T00741002  RH  058%=      5-min Rain = 0
KNH1 160257Z 19009KT 08/M00 A3022 RMK A01 T00751002  RH  058%=      5-min Rain = 0
KNH1 160258Z 18009KT 08/M00 A3022 RMK A01 T00751002  RH  058%=      5-min Rain = 0
KNH1 160259Z 19009KT 08/M00 A3022 RMK A01 T00751002  RH  058%=      5-min Rain = 0
KNH1 160300Z 19009KT 08/M00 A3022 RMK A01 T00751002  RH  058%=      5-min Rain = 0
KNH1 160301Z 19010KT 08/M00 A3022 RMK A01 T00751002  RH  058%=      5-min Rain = 0
KNH1 160302Z 19009KT 08/M00 A3022 RMK A01 T00751002  RH  058%=      5-min Rain = 0
KNH1 160303Z 18009KT 08/M00 A3022 RMK A01 T00751003  RH  058%=      5-min Rain = 0
KNH1 160304Z 19010KT 08/M00 A3022 RMK A01 T00751002  RH  058%=      5-min Rain = 0
KNH1 160305Z 19010KT 08/M00 A3022 RMK A01 T00751003  RH  058%=      5-min Rain = 0
KNH1 160306Z 18009KT 08/M00 A3022 RMK A01 T00751003  RH  058%=      5-min Rain = 0
KNH1 160307Z 19009KT 08/M00 A3022 RMK A01 T00751002  RH  058%=      5-min Rain = 0
KNH1 160308Z 18009KT 08/M00 A3022 RMK A01 T00751002  RH  058%=      5-min Rain = 0
KNH1 160309Z 19009KT 08/M00 A3022 RMK A01 T00751002  RH  058%=      5-min Rain = 0
KNH1 160310Z 19009KT 08/M00 A3022 RMK A01 T00751002  RH  058%=      5-min Rain = 0
KNH1 160311Z 19009KT 08/M00 A3022 RMK A01 T00751002  RH  058%=      5-min Rain = 0
KNH1 160312Z 19010KT 08/M00 A3022 RMK A01 T00751002  RH  058%=      5-min Rain = 0
KNH1 160313Z 18010KT 07/M00 A3022 RMK A01 T00741002  RH  058%=      5-min Rain = 0
KNH1 160314Z 19010KT 07/M00 A3022 RMK A01 T00741002  RH  058%=      5-min Rain = 0
KNH1 160315Z 19008KT 07/M00 A3022 RMK A01 T00741002  RH  058%=      5-min Rain = 0
KNH1 160316Z 19009KT 07/M00 A3022 RMK A01 T00741002  RH  059%=      5-min Rain = 0
KNH1 160317Z 19010KT 07/M00 A3022 RMK A01 T00741002  RH  059%=      5-min Rain = 0
KNH1 160318Z 18009KT 07/M00 A3022 RMK A01 T00741002  RH  058%=      5-min Rain = 0
KNH1 160319Z 18009KT 07/M00 A3022 RMK A01 T00741002  RH  059%=      5-min Rain = 0
KNH1 160320Z 19009KT 07/M00 A3021 RMK A01 T00731002  RH  059%=      5-min Rain = 0
KNH1 160321Z 19009KT 07/M00 A3021 RMK A01 T00731002  RH  059%=      5-min Rain = 0
KNH1 160322Z 18009KT 07/M00 A3021 RMK A01 T00721002  RH  059%=      5-min Rain = 0
KNH1 160323Z 19008KT 07/M00 A3021 RMK A01 T00731002  RH  059%=      5-min Rain = 0
KNH1 160324Z 19008KT 07/M00 A3021 RMK A01 T00721002  RH  059%=      5-min Rain = 0
KNH1 160325Z 18009KT 07/M00 A3021 RMK A01 T00731002  RH  059%=      5-min Rain = 0
KNH1 160326Z 19008KT 07/M00 A3021 RMK A01 T00731002  RH  059%=      5-min Rain = 0
KNH1 160327Z 19008KT 07/M00 A3021 RMK A01 T00731002  RH  059%=      5-min Rain = 0
KNH1 160328Z 19008KT 07/M00 A3021 RMK A01 T00721002  RH  059%=      5-min Rain = 0
KNH1 160329Z 19008KT 07/M00 A3021 RMK A01 T00721002  RH  059%=      5-min Rain = 0
KNH1 160330Z 19008KT 07/M00 A3021 RMK A01 T00721002  RH  059%=      5-min Rain = 0
KNH1 160331Z 19008KT 07/M00 A3021 RMK A01 T00721002  RH  059%=      5-min Rain = 0
KNH1 160332Z 19008KT 07/M00 A3021 RMK A01 T00711002  RH  060%=      5-min Rain = 0
KNH1 160333Z 19008KT 07/M00 A3021 RMK A01 T00711003  RH  059%=      5-min Rain = 0
KNH1 160334Z 19007KT 07/M00 A3021 RMK A01 T00711003  RH  059%=      5-min Rain = 0
KNH1 160335Z 19008KT 07/M00 A3021 RMK A01 T00711003  RH  059%=      5-min Rain = 0
KNH1 160336Z 19007KT 07/M00 A3021 RMK A01 T00711003  RH  059%=      5-min Rain = 0
KNH1 160337Z 19008KT 07/M00 A3022 RMK A01 T00711003  RH  059%=      5-min Rain = 0
KNH1 160338Z 19007KT 07/M00 A3022 RMK A01 T00711003  RH  059%=      5-min Rain = 0
KNH1 160339Z 19007KT 07/M00 A3022 RMK A01 T00711003  RH  059%=      5-min Rain = 0
KNH1 160340Z 19007KT 07/M00 A3022 RMK A01 T00711003  RH  059%=      5-min Rain = 0
KNH1 160341Z 19007KT 07/M00 A3022 RMK A01 T00711003  RH  059%=      5-min Rain = 0
KNH1 160342Z 19007KT 07/M00 A3022 RMK A01 T00701003  RH  060%=      5-min Rain = 0
KNH1 160343Z 19007KT 07/M00 A3022 RMK A01 T00701003  RH  060%=      5-min Rain = 0
KNH1 160344Z 19007KT 07/M00 A3022 RMK A01 T00691003  RH  060%=      5-min Rain = 0
KNH1 160345Z 19007KT 07/M00 A3022 RMK A01 T00691003  RH  060%=      5-min Rain = 0
KNH1 160346Z 19007KT 07/M00 A3022 RMK A01 T00681003  RH  060%=      5-min Rain = 0
KNH1 160347Z 19007KT 07/M00 A3022 RMK A01 T00681003  RH  060%=      5-min Rain = 0
KNH1 160348Z 19007KT 07/M00 A3022 RMK A01 T00681003  RH  060%=      5-min Rain = 0
KNH1 160349Z 19007KT 07/M00 A3022 RMK A01 T00681003  RH  061%=      5-min Rain = 0
KNH1 160350Z 19007KT 07/M00 A3022 RMK A01 T00681003  RH  061%=      5-min Rain = 0
KNH1 160351Z 19006KT 07/M00 A3022 RMK A01 T00671003  RH  061%=      5-min Rain = 0
KNH1 160352Z 19006KT 07/M00 A3022 RMK A01 T00671003  RH  061%=      5-min Rain = 0
KNH1 160353Z 19007KT 07/M00 A3022 RMK A01 T00661003  RH  061%=      5-min Rain = 0
KNH1 160354Z 19007KT 07/M00 A3022 RMK A01 T00661003  RH  062%=      5-min Rain = 0
KNH1 160355Z 19007KT 07/M00 A3022 RMK A01 T00661003  RH  062%=      5-min Rain = 0
KNH1 160356Z 19007KT 07/M00 A3022 RMK A01 T00651003  RH  062%=      5-min Rain = 0
KNH1 160357Z 19007KT 07/M00 A3022 RMK A01 T00651003  RH  062%=      5-min Rain = 0
KNH1 160358Z 19007KT 06/M00 A3022 RMK A01 T00641003  RH  062%=      5-min Rain = 0
KNH1 160359Z 19007KT 06/M00 A3022 RMK A01 T00641003  RH  062%=      5-min Rain = 0
KNH1 160400Z 19007KT 06/M00 A3022 RMK A01 T00631003  RH  063%=      5-min Rain = 0
KNH1 160401Z 19007KT 06/M00 A3022 RMK A01 T00631003  RH  063%=      5-min Rain = 0
KNH1 160402Z 19007KT 06/M00 A3022 RMK A01 T00631002  RH  063%=      5-min Rain = 0
KNH1 160403Z 19007KT 06/M00 A3022 RMK A01 T00621003  RH  063%=      5-min Rain = 0
KNH1 160404Z 19007KT 06/M00 A3022 RMK A01 T00621003  RH  063%=      5-min Rain = 0
KNH1 160405Z 19007KT 06/M00 A3022 RMK A01 T00621003  RH  063%=      5-min Rain = 0
KNH1 160406Z 19007KT 06/M00 A3022 RMK A01 T00621003  RH  063%=      5-min Rain = 0
KNH1 160407Z 19007KT 06/M00 A3022 RMK A01 T00611003  RH  063%=      5-min Rain = 0
KNH1 160408Z 19007KT 06/M00 A3022 RMK A01 T00621003  RH  063%=      5-min Rain = 0
KNH1 160409Z 19006KT 06/M00 A3022 RMK A01 T00621003  RH  063%=      5-min Rain = 0
KNH1 160410Z 20007KT 06/M00 A3022 RMK A01 T00611003  RH  064%=      5-min Rain = 0
KNH1 160411Z 19007KT 06/M00 A3022 RMK A01 T00611003  RH  064%=      5-min Rain = 0
KNH1 160412Z 19006KT 06/M00 A3022 RMK A01 T00601003  RH  064%=      5-min Rain = 0
KNH1 160413Z 20007KT 06/M00 A3022 RMK A01 T00611003  RH  064%=      5-min Rain = 0
KNH1 160414Z 19007KT 06/M00 A3022 RMK A01 T00611003  RH  063%=      5-min Rain = 0
KNH1 160415Z 19007KT 06/M00 A3022 RMK A01 T00611003  RH  063%=      5-min Rain = 0
KNH1 160416Z 19007KT 06/M00 A3022 RMK A01 T00621003  RH  063%=      5-min Rain = 0
KNH1 160417Z 19007KT 06/M00 A3022 RMK A01 T00621003  RH  063%=      5-min Rain = 0
KNH1 160418Z 19007KT 06/M00 A3022 RMK A01 T00621003  RH  063%=      5-min Rain = 0
KNH1 160419Z 20007KT 06/M00 A3022 RMK A01 T00631003  RH  063%=      5-min Rain = 0
KNH1 160420Z 19007KT 06/M00 A3022 RMK A01 T00631003  RH  063%=      5-min Rain = 0
KNH1 160421Z 19007KT 06/M00 A3022 RMK A01 T00621003  RH  063%=      5-min Rain = 0
KNH1 160422Z 19007KT 06/M00 A3022 RMK A01 T00621003  RH  063%=      5-min Rain = 0
KNH1 160423Z 19007KT 06/M00 A3022 RMK A01 T00621003  RH  063%=      5-min Rain = 0
KNH1 160424Z 19007KT 06/M00 A3022 RMK A01 T00611003  RH  063%=      5-min Rain = 0
KNH1 160425Z 19007KT 06/M00 A3022 RMK A01 T00611003  RH  063%=      5-min Rain = 0
KNH1 160426Z 19007KT 06/M00 A3022 RMK A01 T00611003  RH  064%=      5-min Rain = 0
KNH1 160427Z 19007KT 06/M00 A3022 RMK A01 T00611003  RH  064%=      5-min Rain = 0
KNH1 160428Z 19007KT 06/M00 A3022 RMK A01 T00611003  RH  064%=      5-min Rain = 0
KNH1 160429Z 19007KT 06/M00 A3022 RMK A01 T00601003  RH  064%=      5-min Rain = 0
KNH1 160430Z 19007KT 06/M00 A3022 RMK A01 T00601003  RH  064%=      5-min Rain = 0
KNH1 160431Z 19006KT 06/M00 A3022 RMK A01 T00601003  RH  064%=      5-min Rain = 0
KNH1 160432Z 19006KT 06/M00 A3022 RMK A01 T00591003  RH  064%=      5-min Rain = 0
KNH1 160433Z 19006KT 06/M00 A3022 RMK A01 T00591003  RH  065%=      5-min Rain = 0
KNH1 160434Z 19006KT 06/M00 A3022 RMK A01 T00581003  RH  065%=      5-min Rain = 0
KNH1 160435Z 19007KT 06/M00 A3022 RMK A01 T00581002  RH  065%=      5-min Rain = 0
KNH1 160436Z 19006KT 06/M00 A3022 RMK A01 T00571002  RH  065%=      5-min Rain = 0
KNH1 160437Z 19007KT 06/M00 A3022 RMK A01 T00571002  RH  066%=      5-min Rain = 0
KNH1 160438Z 19007KT 06/M00 A3022 RMK A01 T00571002  RH  066%=      5-min Rain = 0
KNH1 160439Z 19007KT 06/M00 A3022 RMK A01 T00551002  RH  066%=      5-min Rain = 0
KNH1 160440Z 19007KT 06/M00 A3022 RMK A01 T00551002  RH  067%=      5-min Rain = 0
KNH1 160441Z 19007KT 05/M00 A3022 RMK A01 T00541002  RH  067%=      5-min Rain = 0
KNH1 160442Z 19007KT 05/M00 A3022 RMK A01 T00541002  RH  067%=      5-min Rain = 0
KNH1 160443Z 19007KT 05/M00 A3022 RMK A01 T00541002  RH  067%=      5-min Rain = 0
KNH1 160444Z 19007KT 05/M00 A3022 RMK A01 T00541002  RH  067%=      5-min Rain = 0
KNH1 160445Z 19007KT 05/M00 A3022 RMK A01 T00541002  RH  067%=      5-min Rain = 0
KNH1 160446Z 20007KT 05/M00 A3022 RMK A01 T00541002  RH  067%=      5-min Rain = 0
KNH1 160447Z 19007KT 06/M00 A3022 RMK A01 T00551002  RH  067%=      5-min Rain = 0
KNH1 160448Z 19007KT 06/M00 A3022 RMK A01 T00551002  RH  067%=      5-min Rain = 0
KNH1 160449Z 19007KT 06/M00 A3022 RMK A01 T00561002  RH  066%=      5-min Rain = 0
KNH1 160450Z 19006KT 06/M00 A3022 RMK A01 T00561002  RH  066%=      5-min Rain = 0
KNH1 160451Z 19006KT 06/M00 A3022 RMK A01 T00571002  RH  065%=      5-min Rain = 0
KNH1 160452Z 19006KT 06/M00 A3022 RMK A01 T00581002  RH  065%=      5-min Rain = 0
KNH1 160453Z 19006KT 06/M00 A3022 RMK A01 T00581003  RH  065%=      5-min Rain = 0
KNH1 160454Z 19006KT 06/M00 A3022 RMK A01 T00581003  RH  065%=      5-min Rain = 0
KNH1 160455Z 19006KT 06/M00 A3022 RMK A01 T00581002  RH  065%=      5-min Rain = 0
KNH1 160456Z 20006KT 06/M00 A3022 RMK A01 T00571002  RH  065%=      5-min Rain = 0
KNH1 160457Z 20007KT 06/M00 A3022 RMK A01 T00571002  RH  066%=      5-min Rain = 0
KNH1 160458Z 20006KT 06/M00 A3022 RMK A01 T00571002  RH  066%=      5-min Rain = 0
KNH1 160459Z 20006KT 06/M00 A3022 RMK A01 T00571003  RH  066%=      5-min Rain = 0
KNH1 160500Z 20007KT 06/M00 A3022 RMK A01 T00571003  RH  065%=      5-min Rain = 0
KNH1 160501Z 20007KT 06/M00 A3021 RMK A01 T00571003  RH  065%=      5-min Rain = 0
KNH1 160502Z 20007KT 06/M00 A3021 RMK A01 T00571003  RH  065%=      5-min Rain = 0
KNH1 160503Z 20007KT 06/M00 A3021 RMK A01 T00571003  RH  065%=      5-min Rain = 0
KNH1 160504Z 20007KT 06/M00 A3021 RMK A01 T00581003  RH  065%=      5-min Rain = 0
KNH1 160505Z 20007KT 06/M00 A3021 RMK A01 T00581003  RH  065%=      5-min Rain = 0
KNH1 160506Z 20008KT 06/M00 A3021 RMK A01 T00581003  RH  065%=      5-min Rain = 0
KNH1 160507Z 20008KT 06/M00 A3021 RMK A01 T00571003  RH  065%=      5-min Rain = 0
KNH1 160508Z 20008KT 06/M00 A3021 RMK A01 T00571003  RH  065%=      5-min Rain = 0
KNH1 160509Z 20008KT 06/M00 A3021 RMK A01 T00571004  RH  065%=      5-min Rain = 0
KNH1 160510Z 20008KT 06/M00 A3021 RMK A01 T00571003  RH  065%=      5-min Rain = 0
KNH1 160511Z 20008KT 06/M00 A3021 RMK A01 T00571003  RH  065%=      5-min Rain = 0
KNH1 160512Z 19007KT 06/M00 A3021 RMK A01 T00571003  RH  065%=      5-min Rain = 0
KNH1 160513Z 20007KT 06/M00 A3021 RMK A01 T00571003  RH  065%=      5-min Rain = 0
KNH1 160514Z 19007KT 06/M00 A3021 RMK A01 T00571003  RH  065%=      5-min Rain = 0
KNH1 160515Z 19007KT 06/M00 A3021 RMK A01 T00571003  RH  065%=      5-min Rain = 0
KNH1 160516Z 19008KT 06/M00 A3021 RMK A01 T00571003  RH  065%=      5-min Rain = 0
KNH1 160517Z 19007KT 06/M00 A3021 RMK A01 T00581003  RH  065%=      5-min Rain = 0
KNH1 160518Z 19008KT 06/M00 A3021 RMK A01 T00581003  RH  065%=      5-min Rain = 0
KNH1 160519Z 19008KT 06/M00 A3021 RMK A01 T00581003  RH  065%=      5-min Rain = 0
KNH1 160520Z 19008KT 06/M00 A3021 RMK A01 T00581003  RH  065%=      5-min Rain = 0
KNH1 160521Z 19008KT 06/M00 A302 RMK A01 T00591003  RH  064%=      5-min Rain = 0
KNH1 160522Z 19008KT 06/M00 A302 RMK A01 T00591003  RH  064%=      5-min Rain = 0
KNH1 160523Z 19008KT 06/M00 A302 RMK A01 T00591003  RH  064%=      5-min Rain = 0
KNH1 160524Z 19008KT 06/M00 A302 RMK A01 T00591003  RH  064%=      5-min Rain = 0
KNH1 160525Z 19008KT 06/M00 A302 RMK A01 T00591003  RH  064%=      5-min Rain = 0
KNH1 160526Z 19008KT 06/M00 A302 RMK A01 T00591003  RH  064%=      5-min Rain = 0
KNH1 160527Z 19008KT 06/M00 A302 RMK A01 T00591003  RH  064%=      5-min Rain = 0
KNH1 160528Z 19007KT 06/M00 A302 RMK A01 T00591003  RH  064%=      5-min Rain = 0
KNH1 160529Z 19008KT 06/M00 A302 RMK A01 T00591003  RH  065%=      5-min Rain = 0
KNH1 160530Z 19007KT 06/M00 A302 RMK A01 T00591003  RH  065%=      5-min Rain = 0
KNH1 160531Z 19007KT 06/M00 A302 RMK A01 T00581003  RH  065%=      5-min Rain = 0
KNH1 160532Z 19008KT 06/M00 A302 RMK A01 T00581003  RH  065%=      5-min Rain = 0
KNH1 160533Z 19008KT 06/M00 A302 RMK A01 T00581002  RH  065%=      5-min Rain = 0
KNH1 160534Z 19007KT 06/M00 A302 RMK A01 T00581003  RH  065%=      5-min Rain = 0
KNH1 160535Z 19007KT 06/M00 A302 RMK A01 T00581003  RH  065%=      5-min Rain = 0
KNH1 160536Z 19007KT 06/M00 A302 RMK A01 T00591003  RH  065%=      5-min Rain = 0
KNH1 160537Z 19008KT 06/M00 A302 RMK A01 T00591003  RH  065%=      5-min Rain = 0
KNH1 160538Z 19008KT 06/M00 A302 RMK A01 T00591003  RH  064%=      5-min Rain = 0
KNH1 160539Z 19008KT 06/M00 A302 RMK A01 T00601003  RH  064%=      5-min Rain = 0
KNH1 160540Z 19007KT 06/M00 A302 RMK A01 T00601003  RH  064%=      5-min Rain = 0
KNH1 160541Z 19009KT 06/M00 A302 RMK A01 T00601003  RH  064%=      5-min Rain = 0
KNH1 160542Z 20008KT 06/M00 A302 RMK A01 T00601003  RH  064%=      5-min Rain = 0
KNH1 160543Z 19008KT 06/M00 A302 RMK A01 T00611003  RH  064%=      5-min Rain = 0
KNH1 160544Z 19008KT 06/M00 A302 RMK A01 T00611003  RH  064%=      5-min Rain = 0
KNH1 160545Z 20008KT 06/M00 A302 RMK A01 T00611003  RH  064%=      5-min Rain = 0
KNH1 160546Z 19008KT 06/M00 A302 RMK A01 T00611003  RH  064%=      5-min Rain = 0
KNH1 160547Z 19008KT 06/M00 A302 RMK A01 T00611003  RH  063%=      5-min Rain = 0
KNH1 160548Z 19008KT 06/M00 A302 RMK A01 T00611003  RH  063%=      5-min Rain = 0
KNH1 160549Z 19009KT 06/M00 A302 RMK A01 T00611003  RH  063%=      5-min Rain = 0
KNH1 160550Z 20009KT 06/M00 A302 RMK A01 T00611004  RH  063%=      5-min Rain = 0
KNH1 160551Z 19009KT 06/M00 A302 RMK A01 T00611004  RH  063%=      5-min Rain = 0
KNH1 160552Z 19009KT 06/M00 A302 RMK A01 T00621003  RH  063%=      5-min Rain = 0
KNH1 160553Z 19009KT 06/M00 A302 RMK A01 T00621003  RH  063%=      5-min Rain = 0
KNH1 160554Z 19009KT 06/M00 A302 RMK A01 T00621003  RH  063%=      5-min Rain = 0
KNH1 160555Z 19009KT 06/M00 A302 RMK A01 T00631003  RH  063%=      5-min Rain = 0
KNH1 160556Z 20009KT 06/M00 A302 RMK A01 T00631003  RH  063%=      5-min Rain = 0
KNH1 160557Z 19008KT 06/M00 A302 RMK A01 T00631003  RH  062%=      5-min Rain = 0
KNH1 160558Z 19009KT 06/M00 A302 RMK A01 T00631003  RH  062%=      5-min Rain = 0
KNH1 160559Z 20009KT 06/M00 A302 RMK A01 T00631003  RH  062%=      5-min Rain = 0

Page generated in 0.0786 seconds.